GEC8413 ZUUU-EDDF

Flight info

Callsign GEC8413
Flight time N/A
Altitude 32100
Route BOKIR9W BOKIR W179 OMBON W195 IDOPA W197 ANDIM B215 IBANO G470 AKLAS W192 FKG A368 SARIN/K0889F321 N161 GASBI/N0478F321 N161 LEYLA N644 ADEKI DCT BADIR DCT LAGAS DCT FOQUS DCT SARPI UM10 OLUPO UL851 KARDE UN644 SIN UW90 INB UL746 ODERO DCT LUGEB DCT OPT DCT SOKRU DCT DEGET DCT ARSIN DCT SUBEN DCT AKINI T161 DEBHI DEBHI1C
Aircraft B77L/H-SDE1E2E3FGHIJ2J3J4J5M1RWXY/LB1D1

Departure

Time 2026-05-07 06:24
Airport Chengdu Shuangliu International Airport (ZUUU)

Arrival

Time N/A
Airport Frankfurt Main Airport (EDDF)
Time Latitude Longitude Altitude Speed Heading
2026-05-07 06:08 30.59299 103.95778 1696 ft 0 kts 111°
2026-05-07 06:16 30.59304 103.95764 1696 ft 2 kts 111°
2026-05-07 06:16 30.59309 103.95748 1696 ft 2 kts 111°
2026-05-07 06:17 30.59315 103.95732 1696 ft 2 kts 126°
2026-05-07 06:17 30.59325 103.95720 1696 ft 2 kts 144°
2026-05-07 06:17 30.59338 103.95712 1696 ft 2 kts 161°
2026-05-07 06:17 30.59353 103.95708 1696 ft 2 kts 178°
2026-05-07 06:18 30.59368 103.95709 1696 ft 2 kts 195°
2026-05-07 06:18 30.59375 103.95712 1696 ft 1 kts 202°
2026-05-07 06:18 30.59377 103.95712 1696 ft 0 kts 202°
2026-05-07 06:20 30.59354 103.95702 1696 ft 6 kts 200°
2026-05-07 06:21 30.59297 103.95676 1696 ft 10 kts 207°
2026-05-07 06:21 30.59278 103.95606 1696 ft 10 kts 285°
2026-05-07 06:21 30.59305 103.95522 1696 ft 11 kts 291°
2026-05-07 06:21 30.59331 103.95443 1696 ft 7 kts 286°
2026-05-07 06:22 30.59328 103.95394 1696 ft 6 kts 234°
2026-05-07 06:22 30.59293 103.95371 1696 ft 0 kts 202°
2026-05-07 06:22 30.59289 103.95370 1696 ft 0 kts 202°
2026-05-07 06:23 30.59287 103.95369 1696 ft 2 kts 202°
2026-05-07 06:23 30.59145 103.95303 1696 ft 55 kts 202°
2026-05-07 06:23 30.58547 103.95026 1696 ft 127 kts 201°
2026-05-07 06:23 30.57508 103.94546 1698 ft 191 kts 201°
2026-05-07 06:24 30.56216 103.93941 2216 ft 205 kts 201°
2026-05-07 06:24 30.54888 103.93285 2975 ft 212 kts 201°
2026-05-07 06:24 30.53482 103.92574 3386 ft 227 kts 200°
2026-05-07 06:24 30.51988 103.91840 3847 ft 240 kts 201°
2026-05-07 06:25 30.50868 103.91280 4280 ft 245 kts 201°
2026-05-07 06:25 30.49256 103.90459 4743 ft 261 kts 206°
2026-05-07 06:25 30.47802 103.89121 5233 ft 277 kts 233°
2026-05-07 06:25 30.46966 103.87076 5791 ft 289 kts 261°
2026-05-07 06:26 30.47041 103.84803 6536 ft 287 kts 290°
2026-05-07 06:26 30.48026 103.82883 7438 ft 277 kts 318°
2026-05-07 06:26 30.49634 103.81655 7917 ft 283 kts 345°
2026-05-07 06:26 30.51527 103.81454 8775 ft 274 kts 12°
2026-05-07 06:27 30.53333 103.82210 9400 ft 279 kts 30°
2026-05-07 06:27 30.55017 103.83314 10099 ft 282 kts 31°
2026-05-07 06:27 30.56762 103.84495 10575 ft 296 kts 31°
2026-05-07 06:27 30.58589 103.85736 10952 ft 313 kts 31°
2026-05-07 06:28 30.60514 103.87044 11347 ft 330 kts 31°
2026-05-07 06:28 30.62560 103.88435 11779 ft 346 kts 30°
2026-05-07 06:28 30.64677 103.89874 12196 ft 362 kts 30°
2026-05-07 06:28 30.66886 103.91376 12689 ft 376 kts 30°
2026-05-07 06:29 30.69165 103.92928 13432 ft 382 kts 30°
2026-05-07 06:29 30.71472 103.94498 14159 ft 387 kts 30°
2026-05-07 06:29 30.73810 103.96096 14750 ft 396 kts 31°
2026-05-07 06:29 30.76100 103.97909 15314 ft 405 kts 34°
2026-05-07 06:30 30.78411 103.99822 15910 ft 413 kts 34°
2026-05-07 06:30 30.80780 104.01777 16494 ft 420 kts 34°
2026-05-07 06:30 30.83204 104.03767 17038 ft 428 kts 33°
2026-05-07 06:30 30.85653 104.05774 17605 ft 434 kts 33°
2026-05-07 06:31 30.88113 104.07786 18219 ft 438 kts 33°
2026-05-07 06:31 30.90632 104.09845 18846 ft 443 kts 33°
2026-05-07 06:31 30.93169 104.11918 19417 ft 448 kts 33°
2026-05-07 06:31 30.95722 104.14004 19960 ft 453 kts 32°
2026-05-07 06:32 30.98307 104.16116 20535 ft 457 kts 32°
2026-05-07 06:32 31.00895 104.18232 21091 ft 461 kts 32°
2026-05-07 06:32 31.03540 104.20395 21647 ft 465 kts 32°
2026-05-07 06:32 31.06222 104.22591 22140 ft 470 kts 32°
2026-05-07 06:33 31.08883 104.24769 22624 ft 475 kts 32°
2026-05-07 06:33 31.11604 104.26998 23189 ft 478 kts 32°
2026-05-07 06:33 31.14315 104.29221 23669 ft 482 kts 32°
2026-05-07 06:33 31.17097 104.31503 24124 ft 487 kts 31°
2026-05-07 06:34 31.19874 104.33727 24626 ft 489 kts 28°
2026-05-07 06:34 31.22891 104.35555 25102 ft 488 kts 18°
2026-05-07 06:34 31.26114 104.36822 25545 ft 487 kts
2026-05-07 06:34 31.29444 104.37492 25980 ft 486 kts 360°
2026-05-07 06:35 31.32812 104.37569 26469 ft 484 kts 353°
2026-05-07 06:35 31.36193 104.37384 27063 ft 485 kts 351°
2026-05-07 06:35 31.39534 104.37181 27703 ft 485 kts 351°
2026-05-07 06:35 31.42943 104.36974 28279 ft 488 kts 351°
2026-05-07 06:36 31.46321 104.36771 28779 ft 491 kts 351°
2026-05-07 06:36 31.49754 104.36565 29233 ft 495 kts 351°
2026-05-07 06:36 31.53188 104.36360 29730 ft 498 kts 351°
2026-05-07 06:36 31.56641 104.36157 30406 ft 497 kts 351°
2026-05-07 06:37 31.60092 104.35956 31229 ft 492 kts 350°
2026-05-07 06:37 31.63479 104.35758 31987 ft 488 kts 350°
2026-05-07 06:37 31.66894 104.35555 32219 ft 492 kts 350°
2026-05-07 06:37 31.70369 104.35351 32239 ft 490 kts 350°
2026-05-07 06:38 31.77183 104.34951 32269 ft 487 kts 350°
2026-05-07 06:38 31.83976 104.34598 32287 ft 487 kts 350°
2026-05-07 06:39 31.90791 104.34252 32292 ft 485 kts 350°
2026-05-07 06:39 31.97535 104.33907 32296 ft 485 kts 350°
2026-05-07 06:40 32.04277 104.33562 32321 ft 485 kts 350°
2026-05-07 06:40 32.11021 104.33215 32328 ft 485 kts 350°
2026-05-07 06:41 32.17759 104.32867 32360 ft 487 kts 350°
2026-05-07 06:41 32.24550 104.32517 32371 ft 484 kts 350°
2026-05-07 06:42 32.31300 104.32169 32380 ft 487 kts 350°
2026-05-07 06:42 32.38071 104.31818 32385 ft 484 kts 350°
2026-05-07 06:43 32.44818 104.31478 32380 ft 485 kts 351°
2026-05-07 06:43 32.51564 104.31155 32395 ft 487 kts 350°
2026-05-07 06:44 32.58331 104.30831 32411 ft 485 kts 350°
2026-05-07 06:44 32.65150 104.30503 32452 ft 487 kts 350°
2026-05-07 06:45 32.71888 104.30180 32454 ft 486 kts 350°
2026-05-07 06:45 32.78657 104.29854 32443 ft 486 kts 351°
2026-05-07 06:46 32.85469 104.29525 32467 ft 487 kts 351°
2026-05-07 06:46 32.92275 104.29196 32466 ft 486 kts 351°
2026-05-07 06:47 32.99053 104.28867 32473 ft 487 kts 351°
2026-05-07 06:47 33.05809 104.28539 32469 ft 489 kts 351°
2026-05-07 06:48 33.12634 104.28209 32485 ft 487 kts 351°
2026-05-07 06:48 33.19381 104.27880 32470 ft 488 kts 351°
2026-05-07 06:49 33.26112 104.27553 32445 ft 488 kts 351°
2026-05-07 06:49 33.32914 104.27032 32478 ft 482 kts 343°
2026-05-07 06:50 33.39201 104.24629 32472 ft 471 kts 327°
2026-05-07 06:50 33.44891 104.20848 32474 ft 464 kts 324°
2026-05-07 06:51 33.50502 104.17021 32451 ft 463 kts 324°
2026-05-07 06:51 33.56198 104.13330 32467 ft 468 kts 331°
2026-05-07 06:52 33.62590 104.11329 32467 ft 486 kts 347°
2026-05-07 06:52 33.69386 104.11150 32454 ft 490 kts 354°
2026-05-07 06:53 33.76223 104.11168 32441 ft 493 kts 354°
2026-05-07 06:53 33.83075 104.11181 32459 ft 492 kts 354°
2026-05-07 06:54 33.89912 104.11186 32442 ft 493 kts 354°
2026-05-07 06:54 33.96806 104.11191 32449 ft 492 kts 354°
2026-05-07 06:55 34.03639 104.11192 32433 ft 492 kts 354°
2026-05-07 06:55 34.10492 104.11193 32428 ft 492 kts 354°
2026-05-07 06:56 34.17322 104.11194 32426 ft 491 kts 354°
2026-05-07 06:56 34.24171 104.11195 32430 ft 490 kts 354°
2026-05-07 06:57 34.30974 104.11195 32415 ft 490 kts 354°
2026-05-07 06:57 34.37794 104.11195 32426 ft 490 kts 354°
2026-05-07 06:58 34.44668 104.11194 32449 ft 492 kts 354°
2026-05-07 06:58 34.51451 104.11195 32428 ft 487 kts 354°
2026-05-07 06:59 34.58239 104.11195 32429 ft 487 kts 354°
2026-05-07 06:59 34.65014 104.11195 32415 ft 489 kts 355°
2026-05-07 07:00 34.71830 104.11195 32388 ft 487 kts 354°
2026-05-07 07:00 34.78572 104.11195 32406 ft 487 kts 354°
2026-05-07 07:01 34.85369 104.11195 32423 ft 488 kts 355°
2026-05-07 07:01 34.92148 104.11195 32421 ft 487 kts 355°
2026-05-07 07:02 34.98906 104.11195 32434 ft 486 kts 355°
2026-05-07 07:02 35.05685 104.11195 32436 ft 484 kts 354°
2026-05-07 07:03 35.12455 104.11195 32436 ft 484 kts 355°
2026-05-07 07:03 35.19162 104.11194 32427 ft 485 kts 355°
2026-05-07 07:04 35.25965 104.11193 32426 ft 489 kts 354°
2026-05-07 07:04 35.32744 104.11194 32404 ft 487 kts 354°
2026-05-07 07:05 35.39518 104.11194 32405 ft 488 kts 354°
2026-05-07 07:05 35.46329 104.11195 32407 ft 487 kts 354°
2026-05-07 07:06 35.53089 104.11202 32378 ft 488 kts 354°
2026-05-07 07:06 35.59844 104.11233 32392 ft 486 kts 354°
2026-05-07 07:07 35.66650 104.11262 32381 ft 489 kts 354°
2026-05-07 07:07 35.73466 104.11292 32373 ft 488 kts 354°
2026-05-07 07:08 35.80246 104.11321 32352 ft 489 kts 354°
2026-05-07 07:08 35.87006 104.10906 32351 ft 487 kts 349°
2026-05-07 07:09 35.93762 104.10161 32333 ft 485 kts 349°
2026-05-07 07:09 36.00464 104.09424 32324 ft 484 kts 348°
2026-05-07 07:10 36.07173 104.08686 32319 ft 483 kts 349°
2026-05-07 07:10 36.13905 104.07946 32329 ft 486 kts 349°
2026-05-07 07:11 36.20604 104.07210 32327 ft 484 kts 348°
2026-05-07 07:11 36.27309 104.06473 32322 ft 486 kts 349°
2026-05-07 07:12 36.34068 104.05737 32328 ft 486 kts 349°
2026-05-07 07:12 36.40801 104.04997 32325 ft 484 kts 348°
2026-05-07 07:13 36.47496 104.04258 32330 ft 485 kts 349°
2026-05-07 07:13 36.54083 104.03004 32327 ft 475 kts 337°
2026-05-07 07:14 36.59978 103.99616 32334 ft 460 kts 320°
2026-05-07 07:14 36.64663 103.94459 32348 ft 449 kts 305°
2026-05-07 07:15 36.68039 103.87969 32356 ft 443 kts 295°
2026-05-07 07:15 36.70950 103.81278 32354 ft 441 kts 295°
2026-05-07 07:16 36.73855 103.74572 32370 ft 444 kts 295°
2026-05-07 07:16 36.76779 103.67810 32375 ft 438 kts 295°
2026-05-07 07:17 36.79660 103.61128 32375 ft 445 kts 294°
2026-05-07 07:17 36.82584 103.54336 32390 ft 440 kts 294°
2026-05-07 07:18 36.85456 103.47649 32398 ft 442 kts 295°
2026-05-07 07:18 36.88367 103.40855 32411 ft 441 kts 294°
2026-05-07 07:19 36.91254 103.34106 32421 ft 441 kts 294°
2026-05-07 07:19 36.94142 103.27348 32431 ft 442 kts 295°
2026-05-07 07:20 36.97417 103.20837 32450 ft 442 kts 298°
2026-05-07 07:20 37.00717 103.14378 32439 ft 442 kts 298°
2026-05-07 07:21 37.04006 103.07882 32436 ft 443 kts 298°
2026-05-07 07:21 37.07284 103.01374 32425 ft 444 kts 298°
2026-05-07 07:22 37.10572 102.94823 32422 ft 443 kts 298°
2026-05-07 07:22 37.13843 102.88286 32423 ft 443 kts 298°
2026-05-07 07:23 37.17119 102.81723 32416 ft 445 kts 298°
2026-05-07 07:23 37.20372 102.75194 32397 ft 444 kts 298°
2026-05-07 07:24 37.23644 102.68611 32414 ft 445 kts 298°
2026-05-07 07:24 37.26915 102.62019 32407 ft 444 kts 297°
2026-05-07 07:25 37.31760 102.52227 32413 ft 444 kts 298°
2026-05-07 07:26 37.34939 102.45563 32410 ft 441 kts 292°
2026-05-07 07:26 37.36911 102.38404 32407 ft 436 kts 282°
2026-05-07 07:27 37.38383 102.30984 32418 ft 435 kts 281°
2026-05-07 07:27 37.39842 102.23570 32413 ft 435 kts 281°
2026-05-07 07:28 37.41297 102.16130 32415 ft 436 kts 281°
2026-05-07 07:28 37.42738 102.08739 32415 ft 436 kts 281°
2026-05-07 07:29 37.44168 102.01367 32424 ft 436 kts 281°
2026-05-07 07:29 37.45602 101.93948 32431 ft 436 kts 281°
2026-05-07 07:30 37.47037 101.86499 32408 ft 438 kts 281°
2026-05-07 07:30 37.48464 101.79064 32407 ft 438 kts 281°
2026-05-07 07:31 37.49886 101.71643 32420 ft 439 kts 282°
2026-05-07 07:31 37.52186 101.64510 32446 ft 443 kts 294°
2026-05-07 07:32 37.55121 101.57648 32475 ft 448 kts 295°
2026-05-07 07:32 37.58052 101.50792 32482 ft 442 kts 295°
2026-05-07 07:33 37.60978 101.43920 32503 ft 447 kts 295°
2026-05-07 07:33 37.63909 101.37024 32504 ft 443 kts 294°
2026-05-07 07:34 37.66828 101.30133 32526 ft 445 kts 294°
2026-05-07 07:34 37.69731 101.23267 32541 ft 445 kts 294°
2026-05-07 07:35 37.72620 101.16419 32554 ft 443 kts 294°
2026-05-07 07:35 37.75522 101.09524 32556 ft 444 kts 294°
2026-05-07 07:36 37.78415 101.02638 32560 ft 442 kts 294°
2026-05-07 07:36 37.81306 100.95739 32576 ft 442 kts 294°
2026-05-07 07:37 37.84222 100.88877 32570 ft 445 kts 296°
2026-05-07 07:37 37.87282 100.82070 32573 ft 443 kts 296°
2026-05-07 07:38 37.90329 100.75262 32579 ft 445 kts 296°
2026-05-07 07:38 37.93379 100.68421 32601 ft 442 kts 296°
2026-05-07 07:39 37.96400 100.61623 32602 ft 446 kts 296°
2026-05-07 07:39 37.99420 100.54809 32607 ft 444 kts 296°
2026-05-07 07:40 38.02448 100.47963 32598 ft 446 kts 296°
2026-05-07 07:40 38.05492 100.41064 32560 ft 444 kts 296°
2026-05-07 07:41 38.08516 100.34196 32572 ft 444 kts 295°
2026-05-07 07:41 38.11546 100.27296 32552 ft 445 kts 295°
2026-05-07 07:42 38.14531 100.20486 32581 ft 443 kts 295°
2026-05-07 07:42 38.17533 100.13622 32561 ft 441 kts 295°
2026-05-07 07:43 38.20524 100.06769 32552 ft 445 kts 295°
2026-05-07 07:43 38.23512 99.99906 32569 ft 445 kts 295°
2026-05-07 07:44 38.26512 99.93005 32540 ft 443 kts 295°
2026-05-07 07:44 38.29489 99.86134 32546 ft 448 kts 295°
2026-05-07 07:45 38.32482 99.79220 32548 ft 442 kts 295°
2026-05-07 07:45 38.35438 99.72373 32520 ft 444 kts 295°
2026-05-07 07:46 38.38414 99.65464 32539 ft 444 kts 295°
2026-05-07 07:46 38.41368 99.58594 32542 ft 442 kts 295°
2026-05-07 07:47 38.44320 99.51709 32546 ft 443 kts 295°
2026-05-07 07:47 38.47285 99.44782 32555 ft 444 kts 295°
2026-05-07 07:48 38.50234 99.37877 32559 ft 443 kts 295°
2026-05-07 07:48 38.53202 99.30911 32512 ft 442 kts 294°
2026-05-07 07:49 38.56134 99.24012 32513 ft 445 kts 294°
2026-05-07 07:49 38.59084 99.17062 32526 ft 442 kts 294°
2026-05-07 07:50 38.62027 99.10108 32550 ft 442 kts 294°
2026-05-07 07:50 38.64929 99.03236 32585 ft 443 kts 294°
2026-05-07 07:51 38.67842 98.96323 32593 ft 441 kts 294°
2026-05-07 07:51 38.70759 98.89386 32575 ft 442 kts 294°
2026-05-07 07:52 38.73698 98.82382 32534 ft 441 kts 294°
2026-05-07 07:52 38.76586 98.75482 32520 ft 440 kts 294°
2026-05-07 07:53 38.79488 98.68535 32525 ft 441 kts 294°
2026-05-07 07:53 38.82367 98.61628 32560 ft 439 kts 294°
2026-05-07 07:54 38.85236 98.54726 32578 ft 438 kts 294°
2026-05-07 07:54 38.88081 98.47872 32584 ft 436 kts 294°
2026-05-07 07:55 38.90940 98.40963 32561 ft 440 kts 294°
2026-05-07 07:55 38.93808 98.34021 32550 ft 436 kts 293°
2026-05-07 07:56 38.96646 98.27134 32508 ft 438 kts 294°
2026-05-07 07:56 38.99481 98.20242 32497 ft 436 kts 294°
2026-05-07 07:57 39.02318 98.13326 32546 ft 441 kts 294°
2026-05-07 07:57 39.05144 98.06425 32526 ft 434 kts 294°
2026-05-07 07:58 39.07960 97.99527 32543 ft 442 kts 294°
2026-05-07 07:58 39.10789 97.92590 32546 ft 435 kts 293°
2026-05-07 07:59 39.13596 97.85684 32540 ft 439 kts 294°
2026-05-07 07:59 39.16414 97.78741 32467 ft 435 kts 293°
2026-05-07 08:00 39.19224 97.71799 32467 ft 436 kts 293°
2026-05-07 08:00 39.22027 97.64857 32467 ft 439 kts 293°
2026-05-07 08:01 39.24834 97.57908 32451 ft 436 kts 293°
2026-05-07 08:01 39.27642 97.50950 32467 ft 439 kts 293°
2026-05-07 08:02 39.30450 97.43983 32473 ft 436 kts 293°
2026-05-07 08:02 39.33244 97.37032 32472 ft 435 kts 293°
2026-05-07 08:03 39.36028 97.30086 32502 ft 436 kts 292°
2026-05-07 08:03 39.38829 97.23082 32485 ft 437 kts 292°
2026-05-07 08:04 39.41586 97.16175 32527 ft 435 kts 292°
2026-05-07 08:04 39.44385 97.09144 32511 ft 436 kts 293°
2026-05-07 08:05 39.47140 97.02213 32471 ft 435 kts 293°
2026-05-07 08:05 39.49947 96.95218 32487 ft 440 kts 293°
2026-05-07 08:06 39.52734 96.88263 32476 ft 439 kts 292°
2026-05-07 08:06 39.55555 96.81202 32430 ft 438 kts 292°
2026-05-07 08:07 39.58329 96.74246 32452 ft 437 kts 292°
2026-05-07 08:07 39.61124 96.67213 32471 ft 440 kts 292°
2026-05-07 08:08 39.63919 96.60165 32442 ft 438 kts 292°
2026-05-07 08:08 39.66679 96.53158 32446 ft 441 kts 292°
2026-05-07 08:09 39.69466 96.46067 32408 ft 442 kts 292°
2026-05-07 08:09 39.72265 96.38931 32386 ft 442 kts 293°
2026-05-07 08:10 39.75048 96.31819 32401 ft 441 kts 292°
2026-05-07 08:10 39.77823 96.24709 32396 ft 442 kts 292°
2026-05-07 08:11 39.80610 96.17553 32362 ft 444 kts 292°
2026-05-07 08:11 39.83376 96.10433 32363 ft 444 kts 292°
2026-05-07 08:12 39.86169 96.03230 32344 ft 442 kts 291°
2026-05-07 08:12 39.88930 95.96088 32320 ft 445 kts 292°
2026-05-07 08:13 39.91719 95.88858 32316 ft 443 kts 292°
2026-05-07 08:13 39.94470 95.81709 32303 ft 444 kts 292°
2026-05-07 08:14 39.97234 95.74506 32289 ft 447 kts 292°
2026-05-07 08:14 40.00017 95.67239 32279 ft 445 kts 292°
2026-05-07 08:15 40.02785 95.59995 32276 ft 449 kts 292°
2026-05-07 08:15 40.05544 95.52755 32267 ft 446 kts 292°
2026-05-07 08:16 40.08292 95.45525 32261 ft 446 kts 291°
2026-05-07 08:16 40.11041 95.38274 32246 ft 447 kts 292°
2026-05-07 08:17 40.13802 95.30975 32250 ft 449 kts 291°
2026-05-07 08:17 40.16549 95.23700 32236 ft 446 kts 291°
2026-05-07 08:18 40.19292 95.16410 32232 ft 448 kts 291°
2026-05-07 08:18 40.22055 95.09119 32218 ft 449 kts 291°
2026-05-07 08:19 40.24836 95.01817 32206 ft 449 kts 292°
2026-05-07 08:19 40.27602 94.94537 32205 ft 450 kts 292°
2026-05-07 08:20 40.30453 94.87249 32195 ft 452 kts 297°
2026-05-07 08:20 40.34227 94.80630 32198 ft 459 kts 303°
2026-05-07 08:21 40.38178 94.74129 32193 ft 457 kts 303°
2026-05-07 08:21 40.42135 94.67596 32196 ft 458 kts 303°
2026-05-07 08:22 40.46094 94.61041 32188 ft 459 kts 303°
2026-05-07 08:22 40.50048 94.54479 32188 ft 457 kts 303°
2026-05-07 08:23 40.54009 94.47890 32189 ft 458 kts 304°
2026-05-07 08:23 40.57933 94.41348 32191 ft 458 kts 304°
2026-05-07 08:24 40.61874 94.34762 32200 ft 458 kts 303°
2026-05-07 08:24 40.65835 94.28130 32212 ft 460 kts 303°
2026-05-07 08:25 40.69751 94.21560 32217 ft 458 kts 304°
2026-05-07 08:25 40.73709 94.14903 32223 ft 459 kts 303°
2026-05-07 08:26 40.79611 94.04950 32226 ft 459 kts 304°
2026-05-07 08:26 40.83546 93.98296 32230 ft 460 kts 304°
2026-05-07 08:27 40.87488 93.91618 32237 ft 462 kts 304°
2026-05-07 08:27 40.91395 93.84983 32233 ft 461 kts 304°
2026-05-07 08:28 40.95527 93.78470 32231 ft 463 kts 307°
2026-05-07 08:28 40.99757 93.71972 32232 ft 466 kts 308°
2026-05-07 08:29 41.03967 93.65466 32235 ft 464 kts 308°
2026-05-07 08:29 41.08155 93.58966 32221 ft 464 kts 308°
2026-05-07 08:30 41.12346 93.52440 32230 ft 465 kts 308°
2026-05-07 08:30 41.16554 93.45870 32203 ft 464 kts 308°
2026-05-07 08:31 41.20748 93.39305 32200 ft 465 kts 308°
2026-05-07 08:31 41.24953 93.32710 32188 ft 463 kts 308°
2026-05-07 08:32 41.29135 93.26135 32188 ft 464 kts 308°
2026-05-07 08:32 41.33261 93.19634 32192 ft 464 kts 309°
2026-05-07 08:33 41.37419 93.13068 32190 ft 463 kts 309°
2026-05-07 08:33 41.41576 93.06487 32189 ft 464 kts 309°
2026-05-07 08:34 41.45739 92.99884 32194 ft 463 kts 310°
2026-05-07 08:34 41.49871 92.93315 32181 ft 465 kts 310°
2026-05-07 08:35 41.54048 92.86661 32182 ft 468 kts 311°
2026-05-07 08:35 41.58218 92.80005 32183 ft 468 kts 311°
2026-05-07 08:36 41.62429 92.73267 32175 ft 473 kts 311°
2026-05-07 08:36 41.66645 92.66505 32176 ft 473 kts 311°
2026-05-07 08:37 41.70855 92.59738 32179 ft 474 kts 311°
2026-05-07 08:37 41.75084 92.52924 32182 ft 475 kts 311°
2026-05-07 08:38 41.79296 92.46124 32161 ft 476 kts 311°
2026-05-07 08:38 41.83552 92.39236 32163 ft 477 kts 311°
2026-05-07 08:39 41.87772 92.32391 32147 ft 477 kts 311°
2026-05-07 08:39 41.91999 92.25519 32147 ft 477 kts 311°
2026-05-07 08:40 41.96221 92.18639 32132 ft 477 kts 311°
2026-05-07 08:40 42.00422 92.11778 32130 ft 478 kts 311°
2026-05-07 08:41 42.04637 92.04876 32134 ft 477 kts 311°
2026-05-07 08:41 42.08825 91.98006 32129 ft 477 kts 311°
2026-05-07 08:42 42.13031 91.91088 32137 ft 477 kts 311°
2026-05-07 08:42 42.17249 91.84135 32139 ft 477 kts 311°
2026-05-07 08:43 42.21414 91.77254 32138 ft 477 kts 311°
2026-05-07 08:43 42.25945 91.70789 32132 ft 475 kts 318°
2026-05-07 08:44 42.30752 91.64683 32125 ft 475 kts 318°
2026-05-07 08:44 42.35524 91.58597 32109 ft 474 kts 318°
2026-05-07 08:45 42.40314 91.52464 32100 ft 474 kts 318°
2026-05-07 08:45 42.45092 91.46328 32101 ft 474 kts 318°
2026-05-07 08:46 42.49836 91.40221 32091 ft 473 kts 318°
2026-05-07 08:46 42.54610 91.34059 32071 ft 473 kts 317°
2026-05-07 08:47 42.59350 91.27926 32053 ft 473 kts 317°
2026-05-07 08:47 42.64104 91.21761 32029 ft 473 kts 317°
2026-05-07 08:48 42.68838 91.15609 32014 ft 473 kts 317°
2026-05-07 08:48 42.73592 91.09416 31987 ft 472 kts 317°
2026-05-07 08:49 42.78310 91.03258 31981 ft 472 kts 317°
2026-05-07 08:49 42.83047 90.97060 31987 ft 472 kts 317°
2026-05-07 08:50 42.87724 90.90859 31986 ft 472 kts 313°
2026-05-07 08:50 42.91542 90.83573 32000 ft 473 kts 303°
2026-05-07 08:51 42.95007 90.75987 32004 ft 473 kts 303°
2026-05-07 08:51 42.98451 90.68413 32006 ft 473 kts 303°
2026-05-07 08:52 43.01937 90.60722 32014 ft 472 kts 303°
2026-05-07 08:52 43.05380 90.53107 32054 ft 472 kts 303°
2026-05-07 08:53 43.08807 90.45505 32087 ft 472 kts 303°
2026-05-07 08:53 43.12251 90.37845 32121 ft 472 kts 303°
2026-05-07 08:54 43.15672 90.30216 32133 ft 472 kts 302°
2026-05-07 08:54 43.19135 90.22472 32149 ft 471 kts 302°
2026-05-07 08:55 43.22554 90.14808 32173 ft 471 kts 302°
2026-05-07 08:55 43.25971 90.07133 32197 ft 471 kts 302°
2026-05-07 08:56 43.29389 89.99435 32217 ft 471 kts 302°
2026-05-07 08:56 43.32783 89.91771 32229 ft 470 kts 302°
2026-05-07 08:57 43.36171 89.84099 32239 ft 469 kts 302°
2026-05-07 08:57 43.39540 89.76453 32240 ft 470 kts 302°
2026-05-07 08:58 43.42935 89.68724 32249 ft 469 kts 302°
2026-05-07 08:58 43.46300 89.61045 32253 ft 468 kts 302°
2026-05-07 08:59 43.49659 89.53358 32254 ft 467 kts 302°
2026-05-07 08:59 43.53005 89.45681 32251 ft 468 kts 302°
2026-05-07 09:00 43.56349 89.37997 32253 ft 468 kts 302°
2026-05-07 09:00 43.59756 89.30367 32254 ft 468 kts 302°
2026-05-07 09:01 43.63165 89.22729 32257 ft 467 kts 302°
2026-05-07 09:01 43.66544 89.15129 32231 ft 467 kts 302°
2026-05-07 09:02 43.69922 89.07511 32227 ft 466 kts 302°
2026-05-07 09:02 43.73330 88.99802 32232 ft 467 kts 302°
2026-05-07 09:03 43.76711 88.92131 32251 ft 467 kts 302°
2026-05-07 09:03 43.80084 88.84458 32255 ft 466 kts 302°
2026-05-07 09:04 43.83428 88.76832 32267 ft 466 kts 302°
2026-05-07 09:04 43.86790 88.69142 32269 ft 466 kts 302°
2026-05-07 09:05 43.90133 88.61477 32251 ft 466 kts 302°
2026-05-07 09:05 43.93470 88.53804 32243 ft 466 kts 302°
2026-05-07 09:06 43.96804 88.46117 32237 ft 464 kts 302°
2026-05-07 09:06 44.00112 88.38471 32226 ft 465 kts 302°
2026-05-07 09:07 44.03429 88.30783 32225 ft 465 kts 301°
2026-05-07 09:07 44.06743 88.23082 32207 ft 465 kts 301°
2026-05-07 09:08 44.10061 88.15353 32164 ft 465 kts 301°
2026-05-07 09:08 44.13361 88.07642 32133 ft 465 kts 301°
2026-05-07 09:09 44.16652 87.99931 32093 ft 465 kts 301°
2026-05-07 09:09 44.20371 87.92651 32074 ft 465 kts 308°
2026-05-07 09:10 44.24250 87.85495 32054 ft 465 kts 308°
2026-05-07 09:10 44.28148 87.78270 32045 ft 465 kts 308°
2026-05-07 09:11 44.32015 87.71077 32042 ft 465 kts 308°
2026-05-07 09:11 44.35921 87.63882 32038 ft 465 kts 309°
2026-05-07 09:12 44.39850 87.56755 32035 ft 464 kts 309°
2026-05-07 09:12 44.43773 87.49612 32041 ft 464 kts 309°
2026-05-07 09:13 44.47690 87.42458 32037 ft 464 kts 309°
2026-05-07 09:13 44.51619 87.35259 32035 ft 465 kts 309°
2026-05-07 09:14 44.55534 87.28069 32027 ft 466 kts 309°
2026-05-07 09:14 44.59610 87.21019 32029 ft 464 kts 310°
2026-05-07 09:15 44.63677 87.14039 32022 ft 465 kts 310°
2026-05-07 09:15 44.67771 87.06976 32015 ft 465 kts 310°
2026-05-07 09:16 44.71826 86.99954 32014 ft 465 kts 310°
2026-05-07 09:16 44.75890 86.92918 32009 ft 466 kts 310°
2026-05-07 09:17 44.79984 86.85819 32006 ft 465 kts 310°
2026-05-07 09:17 44.84045 86.78753 32008 ft 466 kts 310°
2026-05-07 09:18 44.88049 86.71628 32006 ft 467 kts 310°
2026-05-07 09:18 44.92076 86.64436 32000 ft 466 kts 310°
2026-05-07 09:19 44.96077 86.57276 31995 ft 467 kts 310°
2026-05-07 09:19 45.00096 86.50068 31992 ft 466 kts 310°
2026-05-07 09:20 45.04083 86.42901 31990 ft 466 kts 310°
2026-05-07 09:20 45.08066 86.35723 31985 ft 466 kts 310°
2026-05-07 09:21 45.12058 86.28511 31988 ft 466 kts 309°
2026-05-07 09:21 45.16020 86.21334 31976 ft 466 kts 309°
2026-05-07 09:22 45.20016 86.14078 31971 ft 466 kts 309°
2026-05-07 09:22 45.23966 86.06888 31977 ft 464 kts 309°
2026-05-07 09:23 45.27906 85.99698 31976 ft 462 kts 309°
2026-05-07 09:23 45.31847 85.92488 31974 ft 463 kts 309°
2026-05-07 09:24 45.35803 85.85231 31971 ft 462 kts 309°
2026-05-07 09:24 45.39723 85.78022 31970 ft 464 kts 309°
2026-05-07 09:25 45.43634 85.70812 31968 ft 463 kts 309°
2026-05-07 09:25 45.47567 85.63544 31966 ft 463 kts 309°
2026-05-07 09:26 45.51467 85.56316 31963 ft 460 kts 309°
2026-05-07 09:26 45.55341 85.49120 31962 ft 461 kts 309°
2026-05-07 09:27 45.59238 85.41861 31960 ft 460 kts 309°
2026-05-07 09:28 45.65057 85.30988 31961 ft 459 kts 309°
2026-05-07 09:28 45.68903 85.23777 31964 ft 460 kts 309°
2026-05-07 09:29 45.72776 85.16536 31983 ft 459 kts 309°
2026-05-07 09:29 45.76646 85.09310 32006 ft 458 kts 309°
2026-05-07 09:30 45.80503 85.02090 32029 ft 458 kts 309°
2026-05-07 09:30 45.84384 84.94801 32045 ft 459 kts 309°
2026-05-07 09:31 45.88227 84.87567 32058 ft 459 kts 309°
2026-05-07 09:31 45.92064 84.80325 32089 ft 458 kts 309°
2026-05-07 09:32 45.95910 84.73047 32100 ft 458 kts 309°
2026-05-07 09:32 45.99744 84.65772 32129 ft 457 kts 308°
2026-05-07 09:33 46.03495 84.58638 32145 ft 457 kts 309°
2026-05-07 09:33 46.07320 84.51343 32140 ft 457 kts 309°
2026-05-07 09:34 46.11150 84.44019 32171 ft 456 kts 309°
2026-05-07 09:34 46.14931 84.36771 32186 ft 456 kts 308°
2026-05-07 09:35 46.18727 84.29475 32191 ft 456 kts 308°
2026-05-07 09:35 46.22524 84.22158 32184 ft 455 kts 308°
2026-05-07 09:36 46.26318 84.14829 32177 ft 456 kts 308°
2026-05-07 09:36 46.30092 84.07481 32202 ft 456 kts 308°
2026-05-07 09:37 46.33864 84.00105 32216 ft 454 kts 307°
2026-05-07 09:37 46.37627 83.92731 32207 ft 455 kts 307°
2026-05-07 09:38 46.41352 83.85410 32184 ft 454 kts 307°
2026-05-07 09:38 46.45110 83.78009 32160 ft 455 kts 307°
2026-05-07 09:39 46.48865 83.70594 32121 ft 454 kts 307°
2026-05-07 09:39 46.52565 83.63265 32115 ft 454 kts 307°
2026-05-07 09:40 46.56279 83.55891 32123 ft 454 kts 307°
2026-05-07 09:40 46.59994 83.48496 32121 ft 452 kts 307°
2026-05-07 09:41 46.63666 83.41167 32123 ft 453 kts 307°
2026-05-07 09:41 46.67310 83.33688 32124 ft 452 kts 303°
2026-05-07 09:42 46.70645 83.25888 32116 ft 452 kts 303°
2026-05-07 09:42 46.73958 83.18143 32118 ft 452 kts 303°
2026-05-07 09:43 46.77284 83.10382 32118 ft 452 kts 303°
2026-05-07 09:43 46.80609 83.02621 32113 ft 451 kts 303°
2026-05-07 09:44 46.83937 82.94843 32126 ft 451 kts 303°
2026-05-07 09:44 46.86518 82.86519 32124 ft 454 kts 287°
2026-05-07 09:45 46.87661 82.77447 32127 ft 457 kts 281°
2026-05-07 09:45 46.88600 82.68333 32115 ft 455 kts 281°
2026-05-07 09:46 46.89527 82.59232 32121 ft 455 kts 280°
2026-05-07 09:46 46.90449 82.50085 32122 ft 455 kts 280°
2026-05-07 09:47 46.91362 82.40949 32116 ft 455 kts 280°
2026-05-07 09:47 46.92263 82.31850 32116 ft 455 kts 279°
2026-05-07 09:48 46.93162 82.22691 32112 ft 456 kts 280°
2026-05-07 09:48 46.94047 82.13596 32098 ft 455 kts 279°
2026-05-07 09:49 46.94932 82.04427 32093 ft 456 kts 279°
2026-05-07 09:49 46.95805 81.95297 32076 ft 455 kts 279°
2026-05-07 09:50 46.96670 81.86131 32065 ft 454 kts 279°
2026-05-07 09:50 46.97516 81.77051 32055 ft 453 kts 279°
2026-05-07 09:51 46.98363 81.67888 32042 ft 454 kts 279°
2026-05-07 09:51 46.99198 81.58760 32038 ft 454 kts 279°
2026-05-07 09:52 47.00029 81.49604 32031 ft 454 kts 279°
2026-05-07 09:52 47.00849 81.40488 32033 ft 455 kts 279°
2026-05-07 09:53 47.01669 81.31284 32034 ft 455 kts 278°
2026-05-07 09:53 47.02475 81.22153 32040 ft 453 kts 278°
2026-05-07 09:54 47.03274 81.13018 32035 ft 454 kts 278°
2026-05-07 09:54 47.04062 81.03922 32028 ft 453 kts 278°
2026-05-07 09:55 47.04845 80.94794 32027 ft 452 kts 278°
2026-05-07 09:55 47.05621 80.85683 32022 ft 453 kts 278°
2026-05-07 09:56 47.06392 80.76520 32022 ft 452 kts 278°
2026-05-07 09:56 47.07154 80.67388 32017 ft 453 kts 278°
2026-05-07 09:57 47.07909 80.58252 32014 ft 452 kts 278°
2026-05-07 09:57 47.08654 80.49128 32015 ft 452 kts 278°
2026-05-07 09:58 47.09391 80.40031 32018 ft 451 kts 278°
2026-05-07 09:58 47.10126 80.30859 32021 ft 452 kts 277°
2026-05-07 09:59 47.10851 80.21721 32026 ft 451 kts 277°
2026-05-07 09:59 47.11565 80.12627 32028 ft 450 kts 277°
2026-05-07 10:00 47.12275 80.03488 32024 ft 452 kts 277°
2026-05-07 10:00 47.12977 79.94353 32025 ft 451 kts 277°
2026-05-07 10:01 47.13672 79.85219 32014 ft 452 kts 277°
2026-05-07 10:01 47.14383 79.76059 32016 ft 452 kts 277°
2026-05-07 10:02 47.15088 79.66901 32011 ft 452 kts 277°
2026-05-07 10:02 47.15780 79.57814 32022 ft 450 kts 277°
2026-05-07 10:03 47.16469 79.48649 32023 ft 451 kts 277°
2026-05-07 10:03 47.17152 79.39477 32020 ft 452 kts 277°
2026-05-07 10:04 47.17822 79.30377 32023 ft 451 kts 276°
2026-05-07 10:04 47.18489 79.21206 32020 ft 451 kts 276°
2026-05-07 10:05 47.19145 79.12051 32017 ft 452 kts 276°
2026-05-07 10:05 47.19777 79.02877 32017 ft 452 kts 276°
2026-05-07 10:06 47.20403 78.93686 32021 ft 453 kts 276°
2026-05-07 10:06 47.21019 78.84551 32025 ft 451 kts 276°
2026-05-07 10:07 47.21632 78.75332 32031 ft 451 kts 276°
2026-05-07 10:07 47.22232 78.66213 32038 ft 451 kts 276°
2026-05-07 10:08 47.22826 78.57062 32045 ft 451 kts 276°
2026-05-07 10:08 47.23414 78.47913 32058 ft 451 kts 275°
2026-05-07 10:09 47.23993 78.38763 32061 ft 449 kts 275°
2026-05-07 10:09 47.24563 78.29653 32078 ft 449 kts 275°
2026-05-07 10:10 47.25127 78.20521 32075 ft 450 kts 275°
2026-05-07 10:10 47.25686 78.11341 32075 ft 449 kts 275°
2026-05-07 10:11 47.26233 78.02236 32077 ft 449 kts 275°
2026-05-07 10:11 47.26775 77.93108 32074 ft 448 kts 275°
2026-05-07 10:12 47.27309 77.83976 32068 ft 450 kts 275°
2026-05-07 10:12 47.27837 77.74831 32062 ft 448 kts 275°
2026-05-07 10:13 47.28358 77.65672 32066 ft 449 kts 275°
2026-05-07 10:13 47.28870 77.56550 32059 ft 450 kts 275°
2026-05-07 10:14 47.29378 77.47350 32054 ft 450 kts 275°
2026-05-07 10:14 47.29877 77.38198 32050 ft 450 kts 275°
2026-05-07 10:15 47.30368 77.29044 32054 ft 450 kts 274°
2026-05-07 10:15 47.30854 77.19842 32041 ft 451 kts 274°
2026-05-07 10:16 47.31332 77.10655 32037 ft 450 kts 274°
2026-05-07 10:16 47.31903 77.01543 32042 ft 451 kts 278°
2026-05-07 10:17 47.32881 76.92435 32037 ft 451 kts 278°
2026-05-07 10:17 47.33844 76.83242 32041 ft 452 kts 278°
2026-05-07 10:18 47.34785 76.74048 32041 ft 452 kts 278°
2026-05-07 10:18 47.35699 76.64954 32040 ft 452 kts 277°
2026-05-07 10:19 47.36613 76.55743 32044 ft 452 kts 277°
2026-05-07 10:19 47.37510 76.46613 32041 ft 452 kts 277°
2026-05-07 10:20 47.38406 76.37390 32036 ft 452 kts 278°
2026-05-07 10:20 47.39285 76.28269 32035 ft 450 kts 277°
2026-05-07 10:21 47.40158 76.19119 32035 ft 451 kts 277°
2026-05-07 10:21 47.41019 76.10019 32034 ft 452 kts 277°
2026-05-07 10:22 47.41886 76.00780 32042 ft 453 kts 277°
2026-05-07 10:22 47.42736 75.91637 32048 ft 450 kts 277°
2026-05-07 10:23 47.43577 75.82513 32049 ft 447 kts 277°
2026-05-07 10:23 47.44408 75.73412 32044 ft 450 kts 277°
2026-05-07 10:24 47.45239 75.64230 32046 ft 450 kts 277°
2026-05-07 10:24 47.46061 75.55059 32045 ft 449 kts 277°
2026-05-07 10:25 47.46872 75.45935 32050 ft 448 kts 277°
2026-05-07 10:25 47.47678 75.36783 32055 ft 448 kts 277°
2026-05-07 10:26 47.48473 75.27666 32063 ft 449 kts 276°
2026-05-07 10:26 47.49266 75.18481 32065 ft 449 kts 276°
2026-05-07 10:27 47.50048 75.09336 32059 ft 450 kts 276°
2026-05-07 10:27 47.50827 75.00148 32061 ft 450 kts 276°
2026-05-07 10:28 47.51593 74.91022 32064 ft 449 kts 276°
2026-05-07 10:28 47.52354 74.81866 32071 ft 448 kts 276°
2026-05-07 10:29 47.53101 74.72780 32077 ft 448 kts 276°
2026-05-07 10:29 47.53851 74.63575 32068 ft 448 kts 276°
2026-05-07 10:30 47.54956 74.49832 32059 ft 448 kts 276°
2026-05-07 10:30 47.55686 74.40648 32051 ft 449 kts 276°
2026-05-07 10:31 47.56402 74.31534 32056 ft 449 kts 275°
2026-05-07 10:31 47.57116 74.22362 32051 ft 449 kts 275°
2026-05-07 10:32 47.57819 74.13227 32051 ft 449 kts 275°
2026-05-07 10:32 47.58521 74.04008 32057 ft 448 kts 275°
2026-05-07 10:33 47.59214 73.94807 32062 ft 448 kts 275°
2026-05-07 10:33 47.59895 73.85666 32070 ft 448 kts 275°
2026-05-07 10:34 47.60568 73.76524 32069 ft 447 kts 275°
2026-05-07 10:34 47.61232 73.67412 32069 ft 447 kts 275°
2026-05-07 10:35 47.61890 73.58279 32072 ft 447 kts 275°
2026-05-07 10:35 47.62543 73.49120 32069 ft 446 kts 275°
2026-05-07 10:36 47.63185 73.40007 32066 ft 447 kts 275°
2026-05-07 10:36 47.63822 73.30856 32074 ft 447 kts 274°
2026-05-07 10:37 47.64451 73.21719 32072 ft 446 kts 274°
2026-05-07 10:37 47.65075 73.12555 32072 ft 447 kts 274°
2026-05-07 10:38 47.65691 73.03377 32072 ft 447 kts 274°
2026-05-07 10:38 47.66298 72.94238 32070 ft 447 kts 274°
2026-05-07 10:39 47.66902 72.85027 32069 ft 446 kts 274°
2026-05-07 10:39 47.67492 72.75909 32069 ft 445 kts 274°
2026-05-07 10:40 47.68075 72.66805 32075 ft 445 kts 274°
2026-05-07 10:40 47.68652 72.57673 32079 ft 445 kts 274°
2026-05-07 10:41 47.69219 72.48563 32091 ft 444 kts 274°
2026-05-07 10:41 47.69778 72.39482 32085 ft 445 kts 274°
2026-05-07 10:42 47.70331 72.30383 32078 ft 444 kts 273°
2026-05-07 10:42 47.70877 72.21278 32069 ft 443 kts 273°
2026-05-07 10:43 47.71415 72.12176 32066 ft 443 kts 273°
2026-05-07 10:43 47.71945 72.03086 32057 ft 443 kts 273°
2026-05-07 10:44 47.72465 71.94044 32059 ft 443 kts 273°
2026-05-07 10:44 47.72982 71.84941 32056 ft 443 kts 273°
2026-05-07 10:45 47.73424 71.75796 32051 ft 443 kts 272°
2026-05-07 10:45 47.73795 71.66711 32045 ft 442 kts 272°
2026-05-07 10:46 47.74166 71.57578 32039 ft 442 kts 272°
2026-05-07 10:46 47.74526 71.48606 32037 ft 442 kts 272°
2026-05-07 10:47 47.74883 71.39554 32029 ft 441 kts 272°
2026-05-07 10:47 47.75236 71.30440 32039 ft 441 kts 271°
2026-05-07 10:48 47.75581 71.21356 32038 ft 441 kts 271°
2026-05-07 10:48 47.75917 71.12308 32035 ft 442 kts 271°
2026-05-07 10:49 47.76248 71.03223 32033 ft 441 kts 271°
2026-05-07 10:49 47.76569 70.94199 32033 ft 440 kts 271°
2026-05-07 10:50 47.76887 70.85096 32025 ft 440 kts 271°
2026-05-07 10:50 47.77195 70.76045 32023 ft 439 kts 271°
2026-05-07 10:51 47.77496 70.66989 32017 ft 439 kts 271°
2026-05-07 10:51 47.77788 70.57973 32013 ft 440 kts 271°
2026-05-07 10:52 47.78073 70.48924 32013 ft 439 kts 271°
2026-05-07 10:52 47.78351 70.39851 32007 ft 441 kts 271°
2026-05-07 10:53 47.78623 70.30757 32004 ft 440 kts 270°
2026-05-07 10:53 47.78886 70.21728 31998 ft 440 kts 270°
2026-05-07 10:54 47.79143 70.12647 31990 ft 439 kts 270°
2026-05-07 10:54 47.79391 70.03623 31983 ft 440 kts 270°
2026-05-07 10:55 47.79633 69.94613 31981 ft 438 kts 270°
2026-05-07 10:55 47.79868 69.85542 31976 ft 438 kts 270°
2026-05-07 10:56 47.80095 69.76520 31976 ft 438 kts 270°
2026-05-07 10:56 47.80314 69.67537 31967 ft 438 kts 270°
2026-05-07 10:57 47.80528 69.58460 31969 ft 438 kts 270°
2026-05-07 10:57 47.80734 69.49439 31963 ft 438 kts 270°
2026-05-07 10:58 47.80935 69.40340 31961 ft 438 kts 270°
2026-05-07 10:58 47.81126 69.31332 31965 ft 439 kts 270°
2026-05-07 10:59 47.81311 69.22261 31966 ft 437 kts 270°
2026-05-07 10:59 47.81489 69.13230 31972 ft 438 kts 270°
2026-05-07 11:00 47.81660 69.04195 31972 ft 437 kts 270°
2026-05-07 11:00 47.81824 68.95129 31973 ft 436 kts 270°
2026-05-07 11:01 47.81980 68.86089 31968 ft 435 kts 270°
2026-05-07 11:01 47.81632 68.77138 31975 ft 434 kts 262°
2026-05-07 11:02 47.80846 68.68263 31967 ft 434 kts 261°
2026-05-07 11:02 47.80046 68.59399 31963 ft 433 kts 261°
2026-05-07 11:03 47.79237 68.50544 31959 ft 433 kts 261°
2026-05-07 11:03 47.78414 68.41631 31954 ft 432 kts 261°
2026-05-07 11:04 47.77591 68.32806 31955 ft 433 kts 261°
2026-05-07 11:04 47.76760 68.23976 31953 ft 432 kts 261°
2026-05-07 11:05 47.75923 68.15156 31952 ft 431 kts 261°
2026-05-07 11:05 47.75084 68.06383 31951 ft 431 kts 261°
2026-05-07 11:06 47.74239 67.97631 31947 ft 430 kts 260°
2026-05-07 11:06 47.73384 67.88842 31946 ft 430 kts 261°
2026-05-07 11:07 47.72523 67.80064 31946 ft 431 kts 261°
2026-05-07 11:07 47.71517 67.71299 31952 ft 430 kts 256°
2026-05-07 11:08 47.70198 67.62713 31948 ft 429 kts 256°
2026-05-07 11:08 47.68883 67.54082 31951 ft 429 kts 256°
2026-05-07 11:09 47.67582 67.45501 31953 ft 428 kts 257°
2026-05-07 11:09 47.66286 67.36953 31954 ft 428 kts 257°
2026-05-07 11:10 47.64978 67.28356 31959 ft 428 kts 256°
2026-05-07 11:10 47.63665 67.19759 31960 ft 427 kts 256°
2026-05-07 11:11 47.62358 67.11237 31963 ft 429 kts 256°
2026-05-07 11:11 47.61036 67.02669 31962 ft 428 kts 256°
2026-05-07 11:12 47.59706 66.94088 31964 ft 427 kts 256°
2026-05-07 11:12 47.58377 66.85557 31963 ft 426 kts 256°
2026-05-07 11:13 47.57035 66.76993 31964 ft 426 kts 256°
2026-05-07 11:13 47.55694 66.68544 31963 ft 424 kts 256°
2026-05-07 11:14 47.54296 66.60053 31963 ft 425 kts 255°
2026-05-07 11:14 47.52901 66.51613 31960 ft 425 kts 255°
2026-05-07 11:15 47.51498 66.43159 31952 ft 424 kts 255°
2026-05-07 11:15 47.50087 66.34691 31945 ft 424 kts 255°
2026-05-07 11:16 47.48671 66.26239 31940 ft 424 kts 255°
2026-05-07 11:16 47.47250 66.17796 31934 ft 423 kts 255°
2026-05-07 11:17 47.45826 66.09375 31927 ft 424 kts 254°
2026-05-07 11:17 47.44404 66.01004 31923 ft 422 kts 254°
2026-05-07 11:18 47.42973 65.92624 31920 ft 421 kts 254°
2026-05-07 11:18 47.41540 65.84274 31907 ft 420 kts 254°
2026-05-07 11:19 47.40154 65.75892 31905 ft 422 kts 255°
2026-05-07 11:19 47.38777 65.67538 31900 ft 422 kts 255°
2026-05-07 11:20 47.37383 65.59132 31896 ft 422 kts 255°
2026-05-07 11:20 47.35988 65.50764 31889 ft 421 kts 254°
2026-05-07 11:21 47.34583 65.42392 31887 ft 423 kts 255°
2026-05-07 11:21 47.33176 65.34042 31885 ft 421 kts 253°
2026-05-07 11:22 47.31762 65.25690 31885 ft 421 kts 253°
2026-05-07 11:22 47.30336 65.17313 31882 ft 421 kts 253°
2026-05-07 11:23 47.28923 65.09050 31881 ft 419 kts 253°
2026-05-07 11:23 47.27496 65.00742 31876 ft 419 kts 253°
2026-05-07 11:24 47.26063 64.92454 31872 ft 419 kts 253°
2026-05-07 11:24 47.24619 64.84142 31869 ft 420 kts 253°
2026-05-07 11:25 47.23176 64.75877 31862 ft 419 kts 253°
2026-05-07 11:25 47.21719 64.67570 31852 ft 419 kts 253°
2026-05-07 11:26 47.20254 64.59255 31849 ft 421 kts 253°
2026-05-07 11:26 47.18794 64.50996 31841 ft 420 kts 253°
2026-05-07 11:27 47.17317 64.42648 31850 ft 421 kts 253°
2026-05-07 11:27 47.15837 64.34325 31858 ft 421 kts 252°
2026-05-07 11:28 47.14365 64.26080 31866 ft 420 kts 252°
2026-05-07 11:28 47.12878 64.17793 31865 ft 420 kts 252°
2026-05-07 11:29 47.11378 64.09472 31867 ft 421 kts 252°
2026-05-07 11:29 47.09890 64.01260 31864 ft 422 kts 252°
2026-05-07 11:30 47.08379 63.92947 31863 ft 420 kts 252°
2026-05-07 11:30 47.06876 63.84726 31862 ft 421 kts 252°
2026-05-07 11:31 47.05356 63.76440 31859 ft 421 kts 252°
2026-05-07 11:31 47.03833 63.68180 31860 ft 421 kts 252°
2026-05-07 11:32 47.01536 63.55794 31858 ft 421 kts 252°
2026-05-07 11:33 46.99990 63.47507 31859 ft 422 kts 251°
2026-05-07 11:33 46.98453 63.39294 31857 ft 420 kts 252°
2026-05-07 11:34 46.96902 63.31049 31862 ft 420 kts 251°
2026-05-07 11:34 46.95343 63.22799 31858 ft 422 kts 251°
2026-05-07 11:35 46.93797 63.14649 31856 ft 421 kts 251°
2026-05-07 11:35 46.92211 63.06330 31855 ft 422 kts 251°
2026-05-07 11:36 46.90630 62.98069 31854 ft 422 kts 251°
2026-05-07 11:36 46.89046 62.89827 31866 ft 422 kts 251°
2026-05-07 11:37 46.87455 62.81586 31861 ft 422 kts 251°
2026-05-07 11:37 46.85856 62.73344 31858 ft 423 kts 251°
2026-05-07 11:38 46.84246 62.65073 31859 ft 422 kts 251°
2026-05-07 11:38 46.82644 62.56884 31859 ft 422 kts 251°
2026-05-07 11:39 46.81028 62.48650 31861 ft 422 kts 251°
2026-05-07 11:39 46.79396 62.40371 31861 ft 423 kts 251°
2026-05-07 11:40 46.77775 62.32185 31872 ft 423 kts 250°
2026-05-07 11:40 46.76140 62.23961 31872 ft 422 kts 250°
2026-05-07 11:41 46.74529 62.15892 31874 ft 423 kts 250°
2026-05-07 11:41 46.72877 62.07650 31866 ft 424 kts 250°
2026-05-07 11:42 46.71215 61.99396 31867 ft 424 kts 250°
2026-05-07 11:42 46.69561 61.91211 31869 ft 425 kts 250°
2026-05-07 11:43 46.67886 61.82959 31873 ft 423 kts 250°
2026-05-07 11:43 46.66208 61.74730 31880 ft 424 kts 250°
2026-05-07 11:44 46.64532 61.66544 31885 ft 424 kts 250°
2026-05-07 11:44 46.62848 61.58345 31882 ft 424 kts 250°
2026-05-07 11:45 46.61163 61.50182 31888 ft 424 kts 250°
2026-05-07 11:45 46.59466 61.41994 31886 ft 423 kts 250°
2026-05-07 11:46 46.57763 61.33809 31888 ft 422 kts 249°
2026-05-07 11:46 46.56065 61.25677 31890 ft 424 kts 249°
2026-05-07 11:47 46.54357 61.17536 31893 ft 423 kts 249°
2026-05-07 11:47 46.52648 61.09419 31896 ft 424 kts 249°
2026-05-07 11:48 46.50911 61.01202 31901 ft 424 kts 249°
2026-05-07 11:48 46.49189 60.93089 31903 ft 423 kts 249°
2026-05-07 11:49 46.47449 60.84928 31893 ft 424 kts 249°
2026-05-07 11:49 46.45703 60.76769 31891 ft 425 kts 249°
2026-05-07 11:50 46.43956 60.68630 31888 ft 424 kts 249°
2026-05-07 11:50 46.42215 60.60557 31894 ft 423 kts 249°
2026-05-07 11:51 46.40458 60.52442 31889 ft 423 kts 249°
2026-05-07 11:51 46.38699 60.44350 31886 ft 423 kts 249°
2026-05-07 11:52 46.36937 60.36274 31888 ft 422 kts 249°
2026-05-07 11:52 46.35165 60.28187 31896 ft 423 kts 249°
2026-05-07 11:53 46.33388 60.20103 31897 ft 423 kts 249°
2026-05-07 11:53 46.31596 60.11985 31901 ft 423 kts 249°
2026-05-07 11:54 46.29806 60.03904 31901 ft 423 kts 249°
2026-05-07 11:54 46.28021 59.95880 31902 ft 423 kts 249°
2026-05-07 11:55 46.26216 59.87797 31898 ft 423 kts 249°
2026-05-07 11:55 46.24410 59.79738 31900 ft 423 kts 249°
2026-05-07 11:56 46.22599 59.71689 31898 ft 423 kts 249°
2026-05-07 11:56 46.20776 59.63661 31899 ft 421 kts 249°
2026-05-07 11:57 46.18945 59.55643 31900 ft 421 kts 249°
2026-05-07 11:57 46.17111 59.47635 31893 ft 422 kts 249°
2026-05-07 11:58 46.15268 59.39616 31893 ft 422 kts 249°
2026-05-07 11:58 46.13417 59.31597 31913 ft 422 kts 248°
2026-05-07 11:59 46.11559 59.23570 31922 ft 423 kts 248°
2026-05-07 11:59 46.09701 59.15576 31928 ft 422 kts 248°
2026-05-07 12:00 46.07832 59.07565 31933 ft 422 kts 248°
2026-05-07 12:00 46.05968 58.99604 31930 ft 423 kts 248°
2026-05-07 12:01 46.04088 58.91604 31928 ft 423 kts 248°
2026-05-07 12:01 46.02197 58.83587 31923 ft 422 kts 248°
2026-05-07 12:02 46.00303 58.75583 31934 ft 421 kts 248°
2026-05-07 12:02 45.98410 58.67616 31936 ft 422 kts 248°
2026-05-07 12:03 45.96515 58.59669 31938 ft 421 kts 248°
2026-05-07 12:03 45.94625 58.51770 31934 ft 421 kts 248°
2026-05-07 12:04 45.92726 58.43861 31940 ft 422 kts 248°
2026-05-07 12:04 45.90809 58.35906 31935 ft 422 kts 248°
2026-05-07 12:05 45.88886 58.27955 31957 ft 421 kts 248°
2026-05-07 12:05 45.86972 58.20068 31955 ft 422 kts 248°
2026-05-07 12:06 45.85040 58.12138 31960 ft 422 kts 248°
2026-05-07 12:06 45.83110 58.04242 31956 ft 422 kts 248°
2026-05-07 12:07 45.81172 57.96339 31953 ft 423 kts 248°
2026-05-07 12:07 45.79222 57.88418 31946 ft 424 kts 248°
2026-05-07 12:08 45.77255 57.80452 31945 ft 425 kts 248°
2026-05-07 12:08 45.75282 57.72494 31940 ft 425 kts 248°
2026-05-07 12:09 45.73303 57.64538 31944 ft 425 kts 248°
2026-05-07 12:09 45.71323 57.56607 31943 ft 425 kts 248°
2026-05-07 12:10 45.69334 57.48668 31944 ft 424 kts 248°
2026-05-07 12:10 45.67358 57.40808 31945 ft 424 kts 248°
2026-05-07 12:11 45.65362 57.32893 31947 ft 424 kts 247°
2026-05-07 12:11 45.63358 57.24978 31951 ft 424 kts 247°
2026-05-07 12:12 45.61346 57.17056 31950 ft 424 kts 248°
2026-05-07 12:12 45.59342 57.09194 31948 ft 425 kts 248°
2026-05-07 12:13 45.57317 57.01276 31948 ft 425 kts 248°
2026-05-07 12:13 45.55299 56.93409 31944 ft 425 kts 248°
2026-05-07 12:14 45.53265 56.85511 31945 ft 425 kts 248°
2026-05-07 12:14 45.51231 56.77639 31942 ft 424 kts 247°
2026-05-07 12:15 45.49194 56.69783 31944 ft 425 kts 247°
2026-05-07 12:15 45.47144 56.61902 31942 ft 426 kts 247°
2026-05-07 12:16 45.45081 56.53994 31940 ft 426 kts 248°
2026-05-07 12:16 45.43032 56.46169 31940 ft 425 kts 248°
2026-05-07 12:17 45.40968 56.38316 31937 ft 425 kts 248°
2026-05-07 12:17 45.38896 56.30454 31936 ft 425 kts 247°
2026-05-07 12:18 45.36821 56.22611 31941 ft 425 kts 247°
2026-05-07 12:18 45.34740 56.14767 31941 ft 424 kts 247°
2026-05-07 12:19 45.32666 56.06981 31931 ft 425 kts 247°
2026-05-07 12:19 45.30573 55.99144 31941 ft 423 kts 247°
2026-05-07 12:20 45.28486 55.91357 31935 ft 425 kts 247°
2026-05-07 12:20 45.26384 55.83538 31933 ft 424 kts 247°
2026-05-07 12:21 45.24287 55.75766 31935 ft 424 kts 247°
2026-05-07 12:21 45.22180 55.67980 31924 ft 425 kts 247°
2026-05-07 12:22 45.20068 55.60204 31924 ft 424 kts 247°
2026-05-07 12:22 45.17955 55.52446 31926 ft 424 kts 247°
2026-05-07 12:23 45.15837 55.44694 31924 ft 423 kts 247°
2026-05-07 12:23 45.13706 55.36923 31924 ft 422 kts 247°
2026-05-07 12:24 45.11589 55.29225 31930 ft 423 kts 246°
2026-05-07 12:24 45.09306 55.21579 31930 ft 421 kts 240°
2026-05-07 12:25 45.05831 55.14977 31931 ft 421 kts 225°
2026-05-07 12:25 45.01602 55.09295 31930 ft 421 kts 224°
2026-05-07 12:26 44.97326 55.03668 31932 ft 421 kts 224°
2026-05-07 12:26 44.93021 54.98059 31933 ft 420 kts 224°
2026-05-07 12:27 44.88731 54.92501 31945 ft 420 kts 224°
2026-05-07 12:27 44.84429 54.86948 31946 ft 421 kts 224°
2026-05-07 12:28 44.80141 54.81430 31953 ft 420 kts 224°
2026-05-07 12:28 44.75824 54.75890 31953 ft 420 kts 224°
2026-05-07 12:29 44.71493 54.70345 31952 ft 421 kts 224°
2026-05-07 12:29 44.67197 54.64809 31949 ft 420 kts 227°
2026-05-07 12:30 44.63621 54.58416 31959 ft 419 kts 236°
2026-05-07 12:30 44.60303 54.51723 31957 ft 419 kts 236°
2026-05-07 12:31 44.56966 54.45013 31959 ft 418 kts 236°
2026-05-07 12:31 44.53642 54.38354 31959 ft 419 kts 236°
2026-05-07 12:32 44.50305 54.31687 31967 ft 419 kts 235°
2026-05-07 12:32 44.46957 54.25014 31966 ft 419 kts 235°
2026-05-07 12:33 44.41938 54.15041 31973 ft 419 kts 235°
2026-05-07 12:33 44.38581 54.08389 31973 ft 420 kts 235°
2026-05-07 12:34 44.35233 54.01772 31973 ft 419 kts 235°
2026-05-07 12:34 44.31852 53.95105 31975 ft 418 kts 235°
2026-05-07 12:35 44.28510 53.88530 31977 ft 418 kts 235°
2026-05-07 12:35 44.25150 53.81932 31982 ft 418 kts 235°
2026-05-07 12:36 44.21772 53.75317 31982 ft 418 kts 235°
2026-05-07 12:36 44.18403 53.68733 31981 ft 419 kts 235°
2026-05-07 12:37 44.15031 53.62159 31984 ft 418 kts 235°
2026-05-07 12:37 44.11653 53.55587 31987 ft 419 kts 235°
2026-05-07 12:38 44.08266 53.49012 31991 ft 418 kts 235°
2026-05-07 12:38 44.04884 53.42462 31990 ft 418 kts 235°
2026-05-07 12:39 44.01489 53.35903 31989 ft 417 kts 235°
2026-05-07 12:39 43.98109 53.29386 31993 ft 417 kts 235°
2026-05-07 12:40 43.94743 53.22911 31992 ft 417 kts 234°
2026-05-07 12:40 43.91352 53.16403 31993 ft 417 kts 234°
2026-05-07 12:41 43.87954 53.09895 32013 ft 417 kts 234°
2026-05-07 12:41 43.84549 53.03393 32014 ft 416 kts 234°
2026-05-07 12:42 43.81147 52.96910 32015 ft 417 kts 234°
2026-05-07 12:42 43.77748 52.90449 32015 ft 417 kts 234°
2026-05-07 12:43 43.74314 52.83934 32021 ft 418 kts 234°
2026-05-07 12:43 43.70885 52.77444 32024 ft 417 kts 234°
2026-05-07 12:44 43.67467 52.70988 32021 ft 418 kts 234°
2026-05-07 12:44 43.64042 52.64542 32026 ft 417 kts 234°
2026-05-07 12:45 43.60610 52.58115 32032 ft 417 kts 234°
2026-05-07 12:45 43.57179 52.51702 32030 ft 416 kts 234°
2026-05-07 12:46 43.53741 52.45290 32029 ft 417 kts 234°
2026-05-07 12:46 43.50308 52.38901 32032 ft 417 kts 234°
2026-05-07 12:47 43.46839 52.32460 32043 ft 418 kts 234°
2026-05-07 12:47 43.43356 52.26006 32050 ft 418 kts 234°
2026-05-07 12:48 43.39893 52.19604 32050 ft 418 kts 234°
2026-05-07 12:48 43.36438 52.13230 32049 ft 419 kts 234°
2026-05-07 12:49 43.32957 52.06823 32051 ft 418 kts 234°
2026-05-07 12:49 43.29485 52.00444 32063 ft 418 kts 234°
2026-05-07 12:50 43.26004 51.94064 32060 ft 417 kts 234°
2026-05-07 12:50 43.22535 51.87719 32057 ft 418 kts 234°
2026-05-07 12:51 43.19046 51.81353 32071 ft 418 kts 234°
2026-05-07 12:51 43.15560 51.75004 32063 ft 418 kts 234°
2026-05-07 12:52 43.12068 51.68658 32059 ft 418 kts 234°
2026-05-07 12:52 43.08572 51.62320 32064 ft 418 kts 234°
2026-05-07 12:53 43.05059 51.55964 32065 ft 418 kts 234°
2026-05-07 12:53 43.01533 51.49596 32068 ft 419 kts 234°
2026-05-07 12:54 42.98031 51.43287 32066 ft 420 kts 234°
2026-05-07 12:54 42.94492 51.36925 32066 ft 419 kts 234°
2026-05-07 12:55 42.90948 51.30567 32073 ft 419 kts 233°
2026-05-07 12:55 42.87413 51.24237 32080 ft 420 kts 233°
2026-05-07 12:56 42.83897 51.17957 32077 ft 418 kts 233°
2026-05-07 12:56 42.80374 51.11679 32082 ft 417 kts 233°
2026-05-07 12:57 42.76861 51.05428 32078 ft 418 kts 233°
2026-05-07 12:57 42.73327 50.99155 32084 ft 418 kts 233°
2026-05-07 12:58 42.69788 50.92887 32079 ft 418 kts 233°
2026-05-07 12:58 42.66249 50.86631 32082 ft 417 kts 233°
2026-05-07 12:59 42.62727 50.80419 32083 ft 418 kts 233°
2026-05-07 12:59 42.59171 50.74160 32082 ft 417 kts 233°
2026-05-07 13:00 42.55640 50.67957 32078 ft 417 kts 233°
2026-05-07 13:00 42.52098 50.61748 32083 ft 418 kts 233°
2026-05-07 13:01 42.48537 50.55521 32079 ft 417 kts 233°
2026-05-07 13:01 42.44980 50.49311 32077 ft 417 kts 233°
2026-05-07 13:02 42.41521 50.43063 32087 ft 416 kts 236°
2026-05-07 13:02 42.38185 50.36697 32085 ft 416 kts 236°
2026-05-07 13:03 42.34832 50.30336 32088 ft 416 kts 235°
2026-05-07 13:03 42.31458 50.23962 32086 ft 417 kts 235°
2026-05-07 13:04 42.28093 50.17625 32087 ft 416 kts 235°
2026-05-07 13:04 42.24725 50.11300 32091 ft 416 kts 235°
2026-05-07 13:05 42.21355 50.04988 32092 ft 416 kts 235°
2026-05-07 13:05 42.17995 49.98705 32093 ft 416 kts 235°
2026-05-07 13:06 42.14599 49.92370 32087 ft 416 kts 235°
2026-05-07 13:06 42.11212 49.86067 32090 ft 415 kts 234°
2026-05-07 13:07 42.07823 49.79770 32089 ft 416 kts 234°
2026-05-07 13:07 42.04427 49.73476 32088 ft 415 kts 234°
2026-05-07 13:08 42.01052 49.67233 32087 ft 415 kts 234°
2026-05-07 13:08 41.97643 49.60940 32086 ft 416 kts 235°
2026-05-07 13:09 41.94241 49.54673 32090 ft 416 kts 235°
2026-05-07 13:09 41.90839 49.48420 32088 ft 413 kts 235°
2026-05-07 13:10 41.87425 49.42154 32094 ft 415 kts 235°
2026-05-07 13:10 41.84050 49.35978 32093 ft 413 kts 235°
2026-05-07 13:11 41.80653 49.29766 32101 ft 413 kts 235°
2026-05-07 13:11 41.77464 49.23365 32102 ft 412 kts 237°
2026-05-07 13:12 41.74314 49.16993 32097 ft 412 kts 237°
2026-05-07 13:12 41.71134 49.10596 32099 ft 412 kts 237°
2026-05-07 13:13 41.67972 49.04263 32097 ft 411 kts 237°
2026-05-07 13:13 41.64787 48.97903 32096 ft 411 kts 236°
2026-05-07 13:14 41.61652 48.91656 32094 ft 410 kts 236°
2026-05-07 13:14 41.58477 48.85347 32094 ft 411 kts 236°
2026-05-07 13:15 41.55280 48.79006 32097 ft 411 kts 236°
2026-05-07 13:15 41.52101 48.72730 32101 ft 409 kts 235°
2026-05-07 13:16 41.48702 48.66643 32103 ft 409 kts 234°
2026-05-07 13:16 41.45314 48.60619 32114 ft 408 kts 234°
2026-05-07 13:17 41.41917 48.54570 32122 ft 407 kts 234°
2026-05-07 13:17 41.38594 48.48471 32127 ft 407 kts 235°
2026-05-07 13:18 41.35282 48.42386 32136 ft 407 kts 235°
2026-05-07 13:18 41.31942 48.36264 32136 ft 407 kts 235°
2026-05-07 13:19 41.28600 48.30153 32144 ft 409 kts 234°
2026-05-07 13:19 41.25281 48.24097 32139 ft 408 kts 234°
2026-05-07 13:20 41.21947 48.18027 32162 ft 407 kts 234°
2026-05-07 13:20 41.18602 48.11948 32169 ft 408 kts 234°
2026-05-07 13:21 41.15310 48.05831 32161 ft 409 kts 239°
2026-05-07 13:21 41.13041 47.98931 32168 ft 409 kts 253°
2026-05-07 13:22 41.12300 47.91457 32153 ft 416 kts 267°
2026-05-07 13:22 41.13094 47.83849 32140 ft 422 kts 277°
2026-05-07 13:23 41.14306 47.76271 32132 ft 422 kts 277°
2026-05-07 13:23 41.15512 47.68627 32127 ft 421 kts 277°
2026-05-07 13:24 41.16700 47.61015 32127 ft 422 kts 277°
2026-05-07 13:24 41.17876 47.53415 32129 ft 423 kts 277°
2026-05-07 13:25 41.19056 47.45749 32134 ft 421 kts 277°
2026-05-07 13:25 41.20219 47.38148 32127 ft 422 kts 277°
2026-05-07 13:26 41.21381 47.30516 32137 ft 422 kts 277°
2026-05-07 13:26 41.22538 47.22873 32142 ft 421 kts 277°
2026-05-07 13:27 41.23692 47.15220 32136 ft 422 kts 277°
2026-05-07 13:27 41.24850 47.07497 32156 ft 434 kts 277°
2026-05-07 13:28 41.25444 47.03508 32361 ft 445 kts 277°
2026-05-07 13:28 41.26042 46.99501 33002 ft 444 kts 277°
2026-05-07 13:28 41.26630 46.95561 33829 ft 438 kts 277°
2026-05-07 13:28 41.27216 46.91620 34415 ft 436 kts 277°
2026-05-07 13:29 41.27805 46.87643 34816 ft 438 kts 277°
2026-05-07 13:29 41.28386 46.83703 35203 ft 440 kts 277°
2026-05-07 13:29 41.28977 46.79689 35668 ft 441 kts 277°
2026-05-07 13:29 41.29570 46.75649 36050 ft 445 kts 277°
2026-05-07 13:30 41.30716 46.67601 36098 ft 442 kts 277°
2026-05-07 13:30 41.31834 46.59613 36100 ft 440 kts 277°
2026-05-07 13:31 41.32944 46.51640 36096 ft 441 kts 277°
2026-05-07 13:31 41.34060 46.43589 36109 ft 443 kts 277°
2026-05-07 13:32 41.35169 46.35560 36101 ft 442 kts 277°
2026-05-07 13:32 41.36272 46.27522 36106 ft 442 kts 276°
2026-05-07 13:33 41.37374 46.19456 36101 ft 441 kts 276°
2026-05-07 13:33 41.38456 46.11486 36107 ft 443 kts 276°
2026-05-07 13:34 41.40093 45.99353 36341 ft 443 kts 276°
2026-05-07 13:34 41.40636 45.95301 36182 ft 444 kts 276°
2026-05-07 13:35 41.41170 45.91310 36138 ft 440 kts 276°
2026-05-07 13:35 41.42239 45.83292 36131 ft 442 kts 276°
2026-05-07 13:36 41.43303 45.75263 36123 ft 441 kts 276°
2026-05-07 13:36 41.44363 45.67207 36124 ft 443 kts 276°
2026-05-07 13:37 41.45422 45.59124 36124 ft 444 kts 276°
2026-05-07 13:37 41.46478 45.51026 36132 ft 444 kts 276°
2026-05-07 13:38 41.47522 45.42961 36123 ft 444 kts 277°
2026-05-07 13:38 41.48557 45.34809 36126 ft 445 kts 274°
2026-05-07 13:39 41.49216 45.26674 36134 ft 442 kts 272°
2026-05-07 13:39 41.49857 45.18489 36131 ft 445 kts 273°
2026-05-07 13:40 41.50504 45.10332 36125 ft 446 kts 273°
2026-05-07 13:40 41.51157 45.02131 36125 ft 445 kts 273°
2026-05-07 13:41 41.51811 44.93876 36121 ft 447 kts 273°
2026-05-07 13:41 41.52455 44.85691 36123 ft 446 kts 273°
2026-05-07 13:42 41.53098 44.77456 36125 ft 447 kts 273°
2026-05-07 13:42 41.53742 44.69133 36128 ft 448 kts 273°
2026-05-07 13:43 41.54375 44.60887 36136 ft 449 kts 273°
2026-05-07 13:43 41.55003 44.52625 36143 ft 449 kts 273°
2026-05-07 13:44 41.55626 44.44347 36147 ft 450 kts 274°
2026-05-07 13:44 41.56242 44.36074 36151 ft 450 kts 274°
2026-05-07 13:45 41.56875 44.27728 36153 ft 451 kts 275°
2026-05-07 13:45 41.58622 44.19676 36156 ft 459 kts 292°
2026-05-07 13:46 41.61616 44.12159 36156 ft 462 kts 295°
2026-05-07 13:46 41.64693 44.04626 36132 ft 462 kts 295°
2026-05-07 13:47 41.67759 43.97078 36136 ft 462 kts 295°
2026-05-07 13:47 41.70802 43.89553 36136 ft 462 kts 295°
2026-05-07 13:48 41.73868 43.81943 36135 ft 463 kts 296°
2026-05-07 13:48 41.76904 43.74386 36141 ft 463 kts 295°
2026-05-07 13:49 41.79961 43.66753 36146 ft 464 kts 296°
2026-05-07 13:49 41.82997 43.59151 36151 ft 464 kts 296°
2026-05-07 13:50 41.86031 43.51536 36153 ft 465 kts 296°
2026-05-07 13:50 41.89070 43.43886 36155 ft 466 kts 296°
2026-05-07 13:51 41.92097 43.36249 36154 ft 466 kts 296°
2026-05-07 13:51 41.95144 43.28540 36163 ft 466 kts 296°
2026-05-07 13:52 41.98171 43.20860 36165 ft 467 kts 296°
2026-05-07 13:52 42.01214 43.13121 36169 ft 467 kts 296°
2026-05-07 13:53 42.03552 43.05055 36166 ft 465 kts 281°
2026-05-07 13:53 42.04007 42.96390 36173 ft 464 kts 264°
2026-05-07 13:54 42.02541 42.88042 36164 ft 462 kts 248°
2026-05-07 13:54 42.00080 42.80119 36158 ft 462 kts 247°
2026-05-07 13:55 41.97546 42.72212 36154 ft 463 kts 246°
2026-05-07 13:55 41.94973 42.64293 36167 ft 463 kts 246°
2026-05-07 13:56 41.92389 42.56404 36162 ft 464 kts 246°
2026-05-07 13:56 41.89786 42.48503 36165 ft 462 kts 246°
2026-05-07 13:57 41.87179 42.40622 36163 ft 464 kts 246°
2026-05-07 13:57 41.84572 42.32772 36165 ft 463 kts 246°
2026-05-07 13:58 41.81952 42.24904 36167 ft 462 kts 246°
2026-05-07 13:58 41.79332 42.17062 36165 ft 463 kts 246°
2026-05-07 13:59 41.76698 42.09203 36167 ft 463 kts 246°
2026-05-07 13:59 41.74068 42.01379 36170 ft 464 kts 246°
2026-05-07 14:00 41.71420 41.93521 36175 ft 465 kts 246°
2026-05-07 14:00 41.68765 41.85665 36180 ft 464 kts 246°
2026-05-07 14:01 41.66114 41.77848 36181 ft 464 kts 246°
2026-05-07 14:01 41.63452 41.70014 36184 ft 465 kts 246°
2026-05-07 14:02 41.60790 41.62206 36178 ft 463 kts 246°
2026-05-07 14:02 41.58112 41.54372 36184 ft 464 kts 246°
2026-05-07 14:03 41.55805 41.46386 36178 ft 464 kts 257°
2026-05-07 14:03 41.55239 41.37864 36179 ft 465 kts 274°
2026-05-07 14:04 41.55747 41.29267 36179 ft 464 kts 274°
2026-05-07 14:04 41.56258 41.20736 36179 ft 465 kts 274°
2026-05-07 14:05 41.56756 41.12130 36177 ft 466 kts 274°
2026-05-07 14:05 41.57241 41.03516 36177 ft 466 kts 274°
2026-05-07 14:06 41.57717 40.94883 36177 ft 468 kts 274°
2026-05-07 14:06 41.58184 40.86276 36180 ft 468 kts 274°
2026-05-07 14:07 41.58646 40.77618 36179 ft 467 kts 274°
2026-05-07 14:07 41.59098 40.69028 36176 ft 467 kts 274°
2026-05-07 14:08 41.59544 40.60399 36182 ft 467 kts 274°
2026-05-07 14:08 41.59985 40.51766 36181 ft 468 kts 275°
2026-05-07 14:09 41.60421 40.43079 36177 ft 468 kts 275°
2026-05-07 14:09 41.60849 40.34439 36170 ft 469 kts 274°
2026-05-07 14:10 41.61271 40.25772 36180 ft 470 kts 274°
2026-05-07 14:10 41.61687 40.17092 36181 ft 470 kts 274°
2026-05-07 14:11 41.62096 40.08425 36178 ft 470 kts 274°
2026-05-07 14:11 41.62503 39.99669 36181 ft 471 kts 274°
2026-05-07 14:12 41.62902 39.90937 36186 ft 470 kts 274°
2026-05-07 14:12 41.63292 39.82244 36188 ft 470 kts 274°
2026-05-07 14:13 41.63674 39.73593 36188 ft 470 kts 274°
2026-05-07 14:13 41.64055 39.64825 36176 ft 470 kts 274°
2026-05-07 14:14 41.64408 39.56535 36180 ft 471 kts 275°
2026-05-07 14:14 41.64775 39.47767 36180 ft 471 kts 275°
2026-05-07 14:15 41.65131 39.39071 36178 ft 470 kts 275°
2026-05-07 14:15 41.65482 39.30369 36176 ft 471 kts 274°
2026-05-07 14:16 41.65828 39.21611 36176 ft 471 kts 274°
2026-05-07 14:16 41.66166 39.12893 36180 ft 472 kts 274°
2026-05-07 14:17 41.66499 39.04149 36189 ft 471 kts 274°
2026-05-07 14:17 41.66823 38.95443 36181 ft 471 kts 274°
2026-05-07 14:18 41.67142 38.86701 36186 ft 471 kts 274°
2026-05-07 14:18 41.67452 38.78017 36179 ft 471 kts 274°
2026-05-07 14:19 41.67758 38.69265 36180 ft 471 kts 274°
2026-05-07 14:19 41.68057 38.60533 36184 ft 471 kts 275°
2026-05-07 14:20 41.68347 38.51865 36181 ft 470 kts 274°
2026-05-07 14:20 41.68633 38.43111 36179 ft 471 kts 275°
2026-05-07 14:21 41.68912 38.34352 36179 ft 471 kts 274°
2026-05-07 14:21 41.69184 38.25657 36175 ft 471 kts 274°
2026-05-07 14:22 41.69449 38.16927 36187 ft 470 kts 274°
2026-05-07 14:22 41.69707 38.08222 36183 ft 471 kts 274°
2026-05-07 14:23 41.69960 37.99493 36179 ft 470 kts 274°
2026-05-07 14:23 41.70204 37.90810 36175 ft 470 kts 274°
2026-05-07 14:24 41.70443 37.82084 36180 ft 469 kts 274°
2026-05-07 14:24 41.70674 37.73416 36176 ft 470 kts 274°
2026-05-07 14:25 41.71471 37.64783 36174 ft 465 kts 288°
2026-05-07 14:25 41.73795 37.56803 36176 ft 463 kts 296°
2026-05-07 14:26 41.76342 37.48915 36175 ft 463 kts 295°
2026-05-07 14:26 41.78863 37.41036 36172 ft 463 kts 295°
2026-05-07 14:27 41.81387 37.33099 35980 ft 463 kts 295°
2026-05-07 14:27 41.82644 37.29134 36154 ft 468 kts 295°
2026-05-07 14:27 41.83908 37.25136 36172 ft 467 kts 295°
2026-05-07 14:28 41.86429 37.17140 36176 ft 465 kts 295°
2026-05-07 14:28 41.88933 37.09170 36178 ft 465 kts 295°
2026-05-07 14:29 41.90602 37.00780 36175 ft 470 kts 279°
2026-05-07 14:29 41.91237 36.92051 36173 ft 470 kts 278°
2026-05-07 14:30 41.91830 36.83351 36183 ft 470 kts 278°
2026-05-07 14:30 41.92415 36.74627 36174 ft 470 kts 277°
2026-05-07 14:31 41.92992 36.65931 36176 ft 470 kts 278°
2026-05-07 14:31 41.93562 36.57215 36171 ft 469 kts 278°
2026-05-07 14:32 41.94124 36.48518 36176 ft 469 kts 278°
2026-05-07 14:32 41.94677 36.39855 36176 ft 468 kts 277°
2026-05-07 14:33 41.95227 36.31154 36173 ft 469 kts 277°
2026-05-07 14:33 41.95770 36.22435 36176 ft 468 kts 277°
2026-05-07 14:34 41.96301 36.13810 36169 ft 467 kts 277°
2026-05-07 14:34 41.96830 36.05106 36179 ft 467 kts 277°
2026-05-07 14:35 41.97351 35.96424 36176 ft 467 kts 277°
2026-05-07 14:35 41.97866 35.87739 36177 ft 468 kts 277°
2026-05-07 14:36 41.98372 35.79083 36163 ft 466 kts 277°
2026-05-07 14:36 41.98872 35.70438 36152 ft 465 kts 277°
2026-05-07 14:37 41.99366 35.61759 36160 ft 465 kts 278°
2026-05-07 14:37 42.00087 35.48890 36136 ft 462 kts 278°
2026-05-07 14:38 42.00562 35.40272 36147 ft 464 kts 278°
2026-05-07 14:38 42.01028 35.31688 36149 ft 462 kts 277°
2026-05-07 14:39 42.01490 35.23073 36144 ft 461 kts 278°
2026-05-07 14:39 42.01941 35.14533 36140 ft 460 kts 278°
2026-05-07 14:40 42.02185 35.05930 36133 ft 464 kts 271°
2026-05-07 14:40 42.01778 34.97315 36139 ft 464 kts 270°
2026-05-07 14:41 42.01340 34.88647 36130 ft 464 kts 270°
2026-05-07 14:41 42.00914 34.80064 36138 ft 463 kts 270°
2026-05-07 14:42 42.00501 34.71448 36130 ft 462 kts 270°
2026-05-07 14:42 42.00079 34.62825 36140 ft 462 kts 270°
2026-05-07 14:43 41.99652 34.54240 36136 ft 461 kts 270°
2026-05-07 14:43 41.99219 34.45689 36125 ft 461 kts 270°
2026-05-07 14:44 41.98780 34.37129 36130 ft 462 kts 270°
2026-05-07 14:44 41.98331 34.28522 36139 ft 462 kts 270°
2026-05-07 14:45 41.97879 34.19987 36137 ft 462 kts 269°
2026-05-07 14:45 41.97418 34.11395 36130 ft 461 kts 269°
2026-05-07 14:46 41.96951 34.02816 36132 ft 463 kts 269°
2026-05-07 14:46 41.96477 33.94221 36137 ft 461 kts 269°
2026-05-07 14:47 41.95998 33.85658 36134 ft 460 kts 269°
2026-05-07 14:47 41.95514 33.77128 36149 ft 460 kts 269°
2026-05-07 14:48 41.95608 33.68674 36130 ft 452 kts 283°
2026-05-07 14:48 41.97064 33.60527 36126 ft 449 kts 288°
2026-05-07 14:49 41.98650 33.52374 36131 ft 449 kts 288°
2026-05-07 14:49 42.00220 33.44226 36137 ft 449 kts 288°
2026-05-07 14:50 42.01766 33.36153 36130 ft 449 kts 288°
2026-05-07 14:50 42.03316 33.28011 36132 ft 449 kts 287°
2026-05-07 14:51 42.04849 33.19926 36135 ft 449 kts 287°
2026-05-07 14:51 42.06374 33.11845 36129 ft 448 kts 287°
2026-05-07 14:52 42.07942 33.03728 36130 ft 447 kts 289°
2026-05-07 14:52 42.09598 32.95705 36133 ft 447 kts 289°
2026-05-07 14:53 42.11247 32.87663 36144 ft 447 kts 289°
2026-05-07 14:53 42.12885 32.79624 36138 ft 445 kts 289°
2026-05-07 14:54 42.14509 32.71612 36135 ft 445 kts 289°
2026-05-07 14:54 42.16127 32.63593 36131 ft 444 kts 289°
2026-05-07 14:55 42.17731 32.55603 36135 ft 444 kts 289°
2026-05-07 14:55 42.19330 32.47595 36124 ft 443 kts 289°
2026-05-07 14:56 42.20930 32.39555 36132 ft 444 kts 289°
2026-05-07 14:56 42.22521 32.31522 36130 ft 443 kts 288°
2026-05-07 14:57 42.24101 32.23517 36124 ft 443 kts 288°
2026-05-07 14:57 42.25677 32.15478 36138 ft 442 kts 288°
2026-05-07 14:58 42.27238 32.07485 36141 ft 442 kts 288°
2026-05-07 14:58 42.28808 31.99451 36141 ft 441 kts 288°
2026-05-07 14:59 42.30358 31.91495 36137 ft 441 kts 288°
2026-05-07 14:59 42.31912 31.83478 36142 ft 443 kts 288°
2026-05-07 15:00 42.33457 31.75476 36137 ft 443 kts 288°
2026-05-07 15:00 42.35006 31.67423 36136 ft 442 kts 288°
2026-05-07 15:01 42.36532 31.59451 36134 ft 441 kts 288°
2026-05-07 15:01 42.38055 31.51462 36137 ft 440 kts 288°
2026-05-07 15:02 42.39585 31.43409 36131 ft 441 kts 288°
2026-05-07 15:02 42.41097 31.35414 36129 ft 442 kts 288°
2026-05-07 15:03 42.42604 31.27410 36136 ft 440 kts 287°
2026-05-07 15:03 42.44109 31.19388 36149 ft 441 kts 287°
2026-05-07 15:04 42.45605 31.11381 36143 ft 441 kts 287°
2026-05-07 15:04 42.47099 31.03334 36137 ft 440 kts 287°
2026-05-07 15:05 42.48583 30.95307 36138 ft 441 kts 287°
2026-05-07 15:05 42.50056 30.87306 36136 ft 439 kts 287°
2026-05-07 15:06 42.51522 30.79306 36135 ft 441 kts 287°
2026-05-07 15:06 42.52988 30.71274 36135 ft 440 kts 287°
2026-05-07 15:07 42.54454 30.63211 36133 ft 440 kts 287°
2026-05-07 15:07 42.55899 30.55221 36129 ft 440 kts 287°
2026-05-07 15:08 42.57343 30.47210 36123 ft 440 kts 287°
2026-05-07 15:08 42.58785 30.39171 36113 ft 438 kts 287°
2026-05-07 15:09 42.60298 30.31131 36111 ft 437 kts 292°
2026-05-07 15:09 42.62983 30.23880 36114 ft 432 kts 307°
2026-05-07 15:10 42.66838 30.17658 36116 ft 431 kts 313°
2026-05-07 15:10 42.70786 30.11620 36114 ft 430 kts 313°
2026-05-07 15:11 42.74765 30.05526 36109 ft 430 kts 313°
2026-05-07 15:11 42.78730 29.99445 36110 ft 430 kts 313°
2026-05-07 15:12 42.82689 29.93359 36107 ft 429 kts 313°
2026-05-07 15:12 42.86629 29.87292 36110 ft 429 kts 313°
2026-05-07 15:13 42.90569 29.81213 36102 ft 428 kts 313°
2026-05-07 15:13 42.94499 29.75137 36107 ft 430 kts 313°
2026-05-07 15:14 42.98460 29.68999 36106 ft 430 kts 313°
2026-05-07 15:14 43.02404 29.62876 36105 ft 430 kts 313°
2026-05-07 15:15 43.06338 29.56754 36103 ft 430 kts 313°
2026-05-07 15:15 43.10278 29.50610 36099 ft 431 kts 313°
2026-05-07 15:16 43.14190 29.44497 36111 ft 430 kts 313°
2026-05-07 15:16 43.18136 29.38318 36105 ft 429 kts 313°
2026-05-07 15:17 43.22065 29.32154 36112 ft 430 kts 312°
2026-05-07 15:17 43.25983 29.25992 36108 ft 430 kts 312°
2026-05-07 15:18 43.29898 29.19822 36106 ft 430 kts 312°
2026-05-07 15:18 43.33823 29.13623 36106 ft 430 kts 312°
2026-05-07 15:19 43.37750 29.07407 36109 ft 431 kts 312°
2026-05-07 15:19 43.41645 29.01230 36109 ft 431 kts 312°
2026-05-07 15:20 43.45563 28.95002 36104 ft 431 kts 312°
2026-05-07 15:20 43.49475 28.88769 36100 ft 431 kts 312°
2026-05-07 15:21 43.53383 28.82531 36101 ft 431 kts 311°
2026-05-07 15:21 43.57295 28.76272 36102 ft 432 kts 311°
2026-05-07 15:22 43.61184 28.70037 36099 ft 431 kts 312°
2026-05-07 15:22 43.65112 28.63725 36097 ft 433 kts 311°
2026-05-07 15:23 43.68991 28.57479 36093 ft 433 kts 311°
2026-05-07 15:23 43.72887 28.51159 36088 ft 433 kts 309°
2026-05-07 15:24 43.76210 28.44253 36089 ft 434 kts 304°
2026-05-07 15:24 43.79431 28.37190 36089 ft 435 kts 304°
2026-05-07 15:25 43.82641 28.30128 36091 ft 435 kts 303°
2026-05-07 15:25 43.85838 28.23071 36091 ft 434 kts 303°
2026-05-07 15:26 43.88977 28.16124 36080 ft 434 kts 303°
2026-05-07 15:26 43.92173 28.09034 36080 ft 435 kts 303°
2026-05-07 15:27 43.95376 28.01908 36078 ft 434 kts 303°
2026-05-07 15:27 43.98558 27.94811 36072 ft 436 kts 303°
2026-05-07 15:28 44.01737 27.87703 36067 ft 435 kts 303°
2026-05-07 15:28 44.04915 27.80582 36065 ft 436 kts 303°
2026-05-07 15:29 44.08106 27.73411 36061 ft 434 kts 302°
2026-05-07 15:29 44.11278 27.66267 36067 ft 436 kts 302°
2026-05-07 15:30 44.14453 27.59099 36060 ft 436 kts 302°
2026-05-07 15:30 44.17601 27.51971 36060 ft 435 kts 302°
2026-05-07 15:31 44.20758 27.44807 36049 ft 436 kts 302°
2026-05-07 15:31 44.23924 27.37607 36053 ft 435 kts 302°
2026-05-07 15:32 44.27085 27.30396 36051 ft 436 kts 301°
2026-05-07 15:32 44.30226 27.23215 36045 ft 436 kts 301°
2026-05-07 15:33 44.33357 27.16040 36042 ft 436 kts 301°
2026-05-07 15:33 44.36513 27.08787 36043 ft 436 kts 301°
2026-05-07 15:34 44.39642 27.01580 36034 ft 436 kts 301°
2026-05-07 15:34 44.42769 26.94356 36034 ft 435 kts 301°
2026-05-07 15:35 44.45898 26.87112 36024 ft 438 kts 301°
2026-05-07 15:35 44.49048 26.79800 36019 ft 438 kts 301°
2026-05-07 15:36 44.52168 26.72540 36014 ft 439 kts 300°
2026-05-07 15:36 44.55310 26.65210 36006 ft 438 kts 300°
2026-05-07 15:37 44.58433 26.57905 36006 ft 438 kts 300°
2026-05-07 15:37 44.61136 26.50288 36008 ft 439 kts 295°
2026-05-07 15:38 44.63705 26.42566 36010 ft 438 kts 294°
2026-05-07 15:38 44.66277 26.34805 36016 ft 440 kts 294°
2026-05-07 15:39 44.68849 26.27015 36020 ft 440 kts 294°
2026-05-07 15:39 44.71428 26.19181 36023 ft 442 kts 293°
2026-05-07 15:40 44.73990 26.11375 36023 ft 441 kts 293°
2026-05-07 15:40 44.76562 26.03512 36024 ft 443 kts 294°
2026-05-07 15:41 44.79124 25.95661 36023 ft 443 kts 293°
2026-05-07 15:41 44.81699 25.87742 36022 ft 442 kts 293°
2026-05-07 15:42 44.84248 25.79883 36023 ft 441 kts 293°
2026-05-07 15:42 44.86774 25.72066 36027 ft 442 kts 293°
2026-05-07 15:43 44.89318 25.64176 36029 ft 442 kts 293°
2026-05-07 15:43 44.91844 25.56314 36032 ft 442 kts 293°
2026-05-07 15:44 44.94367 25.48439 36034 ft 442 kts 293°
2026-05-07 15:44 44.96891 25.40535 36036 ft 442 kts 293°
2026-05-07 15:45 44.99397 25.32665 36041 ft 442 kts 292°
2026-05-07 15:45 45.02346 25.25000 36046 ft 443 kts 297°
2026-05-07 15:46 45.06896 25.13688 36045 ft 443 kts 297°
2026-05-07 15:47 45.09909 25.06100 36050 ft 444 kts 297°
2026-05-07 15:47 45.12913 24.98488 36044 ft 444 kts 296°
2026-05-07 15:48 45.15918 24.90836 36044 ft 443 kts 296°
2026-05-07 15:48 45.18889 24.83246 36047 ft 445 kts 296°
2026-05-07 15:49 45.21834 24.75696 36050 ft 445 kts 296°
2026-05-07 15:49 45.24810 24.68044 36058 ft 447 kts 296°
2026-05-07 15:50 45.27805 24.60320 36053 ft 445 kts 296°
2026-05-07 15:50 45.30784 24.52615 36053 ft 448 kts 296°
2026-05-07 15:51 45.33754 24.44913 36054 ft 448 kts 296°
2026-05-07 15:51 45.36732 24.37169 36055 ft 448 kts 296°
2026-05-07 15:52 45.39698 24.29432 36053 ft 447 kts 295°
2026-05-07 15:52 45.42677 24.21641 36047 ft 448 kts 295°
2026-05-07 15:53 45.45649 24.13846 36055 ft 449 kts 295°
2026-05-07 15:53 45.48628 24.06009 36059 ft 450 kts 295°
2026-05-07 15:54 45.51590 23.98196 36068 ft 450 kts 295°
2026-05-07 15:54 45.54535 23.90403 36067 ft 449 kts 295°
2026-05-07 15:55 45.57495 23.82552 36070 ft 450 kts 295°
2026-05-07 15:55 45.60438 23.74722 36068 ft 449 kts 295°
2026-05-07 15:56 45.63390 23.66843 36062 ft 450 kts 295°
2026-05-07 15:56 45.66324 23.58993 36063 ft 451 kts 295°
2026-05-07 15:57 45.69260 23.51112 36058 ft 451 kts 295°
2026-05-07 15:57 45.72192 23.43221 36055 ft 451 kts 295°
2026-05-07 15:58 45.75125 23.35304 36043 ft 451 kts 295°
2026-05-07 15:58 45.78034 23.27427 36036 ft 452 kts 294°
2026-05-07 15:59 45.80947 23.19518 36029 ft 450 kts 294°
2026-05-07 15:59 45.83863 23.11578 36030 ft 450 kts 294°
2026-05-07 16:00 45.86774 23.03626 36028 ft 452 kts 294°
2026-05-07 16:00 45.89678 22.95671 36028 ft 451 kts 294°
2026-05-07 16:01 45.92575 22.87712 36031 ft 452 kts 294°
2026-05-07 16:01 45.95473 22.79726 36030 ft 453 kts 294°
2026-05-07 16:02 45.98353 22.71768 36025 ft 451 kts 294°
2026-05-07 16:02 46.01260 22.63710 36019 ft 451 kts 294°
2026-05-07 16:03 46.04124 22.55748 36020 ft 453 kts 294°
2026-05-07 16:03 46.07041 22.47613 36021 ft 452 kts 294°
2026-05-07 16:04 46.09898 22.39624 36016 ft 452 kts 294°
2026-05-07 16:04 46.12789 22.31513 36006 ft 455 kts 293°
2026-05-07 16:05 46.15651 22.23461 36005 ft 453 kts 293°
2026-05-07 16:05 46.18507 22.15401 36006 ft 453 kts 293°
2026-05-07 16:06 46.21370 22.07296 36003 ft 454 kts 293°
2026-05-07 16:06 46.24209 21.99235 36004 ft 453 kts 292°
2026-05-07 16:07 46.27063 21.91103 36004 ft 454 kts 293°
2026-05-07 16:07 46.29910 21.82972 36000 ft 454 kts 293°
2026-05-07 16:08 46.32735 21.74875 35998 ft 454 kts 293°
2026-05-07 16:08 46.35561 21.66753 35997 ft 453 kts 293°
2026-05-07 16:09 46.38378 21.58630 35999 ft 454 kts 293°
2026-05-07 16:09 46.41193 21.50489 35996 ft 452 kts 293°
2026-05-07 16:10 46.43995 21.42361 35997 ft 453 kts 293°
2026-05-07 16:10 46.46804 21.34187 35996 ft 454 kts 292°
2026-05-07 16:11 46.49500 21.25988 35998 ft 449 kts 288°
2026-05-07 16:11 46.51750 21.17528 36004 ft 450 kts 287°
2026-05-07 16:12 46.53977 21.09037 36005 ft 450 kts 287°
2026-05-07 16:12 46.56192 21.00544 35996 ft 449 kts 287°
2026-05-07 16:13 46.58382 20.92106 35990 ft 449 kts 287°
2026-05-07 16:13 46.60570 20.83637 35985 ft 449 kts 287°
2026-05-07 16:14 46.62760 20.75130 35991 ft 448 kts 287°
2026-05-07 16:14 46.64927 20.66676 35988 ft 448 kts 287°
2026-05-07 16:15 46.67088 20.58216 35988 ft 448 kts 287°
2026-05-07 16:15 46.69260 20.49683 35982 ft 449 kts 287°
2026-05-07 16:16 46.71407 20.41212 35994 ft 448 kts 286°
2026-05-07 16:16 46.73551 20.32726 35999 ft 448 kts 285°
2026-05-07 16:17 46.75685 20.24249 35998 ft 446 kts 285°
2026-05-07 16:17 46.77813 20.15760 35996 ft 447 kts 285°
2026-05-07 16:18 46.79926 20.07301 35999 ft 445 kts 285°
2026-05-07 16:18 46.82040 19.98801 35999 ft 445 kts 285°
2026-05-07 16:19 46.84141 19.90328 36004 ft 447 kts 285°
2026-05-07 16:19 46.86239 19.81834 36006 ft 446 kts 285°
2026-05-07 16:20 46.88334 19.73321 36008 ft 445 kts 285°
2026-05-07 16:20 46.90409 19.64852 36004 ft 445 kts 285°
2026-05-07 16:21 46.92486 19.56347 36005 ft 445 kts 285°
2026-05-07 16:21 46.94553 19.47852 35983 ft 444 kts 285°
2026-05-07 16:22 46.96602 19.39398 35967 ft 443 kts 285°
2026-05-07 16:22 46.98646 19.30931 35975 ft 440 kts 284°
2026-05-07 16:23 47.00665 19.22533 35980 ft 440 kts 284°
2026-05-07 16:23 47.02681 19.14119 35979 ft 440 kts 284°
2026-05-07 16:24 47.04707 19.05632 35976 ft 440 kts 284°
2026-05-07 16:24 47.06708 18.97212 35974 ft 441 kts 284°
2026-05-07 16:25 47.08707 18.88771 35974 ft 440 kts 284°
2026-05-07 16:25 47.10703 18.80315 35963 ft 440 kts 284°
2026-05-07 16:26 47.12694 18.71840 35962 ft 440 kts 284°
2026-05-07 16:26 47.14675 18.63378 35966 ft 441 kts 284°
2026-05-07 16:27 47.16664 18.54850 35963 ft 440 kts 284°
2026-05-07 16:27 47.18629 18.46388 35961 ft 440 kts 284°
2026-05-07 16:28 47.20604 18.37852 35963 ft 440 kts 284°
2026-05-07 16:28 47.22555 18.29384 35959 ft 440 kts 283°
2026-05-07 16:29 47.24503 18.20900 35960 ft 442 kts 283°
2026-05-07 16:29 47.26452 18.12377 35954 ft 440 kts 283°
2026-05-07 16:30 47.28398 18.03830 35962 ft 440 kts 283°
2026-05-07 16:30 47.30322 17.95345 35960 ft 442 kts 283°
2026-05-07 16:31 47.32259 17.86773 35962 ft 441 kts 283°
2026-05-07 16:31 47.34187 17.78205 35963 ft 442 kts 283°
2026-05-07 16:32 47.36104 17.69647 35966 ft 444 kts 283°
2026-05-07 16:32 47.38029 17.61025 35972 ft 444 kts 283°
2026-05-07 16:33 47.39944 17.52409 35963 ft 444 kts 283°
2026-05-07 16:33 47.41851 17.43791 35967 ft 443 kts 283°
2026-05-07 16:34 47.43745 17.35205 35949 ft 442 kts 283°
2026-05-07 16:34 47.45635 17.26593 35969 ft 442 kts 282°
2026-05-07 16:35 47.47519 17.17978 35970 ft 443 kts 282°
2026-05-07 16:35 47.49405 17.09312 35956 ft 443 kts 282°
2026-05-07 16:36 47.51288 17.00632 36256 ft 443 kts 282°
2026-05-07 16:36 47.52218 16.96327 36092 ft 443 kts 282°
2026-05-07 16:36 47.53153 16.91995 35976 ft 440 kts 282°
2026-05-07 16:37 47.55001 16.83398 35950 ft 441 kts 282°
2026-05-07 16:37 47.56843 16.74794 35937 ft 442 kts 283°
2026-05-07 16:38 47.59105 16.66286 35946 ft 444 kts 287°
2026-05-07 16:38 47.61449 16.57839 35948 ft 446 kts 287°
2026-05-07 16:39 47.63778 16.49341 35950 ft 445 kts 287°
2026-05-07 16:39 47.66081 16.40865 35956 ft 446 kts 287°
2026-05-07 16:40 47.68375 16.32370 35958 ft 445 kts 286°
2026-05-07 16:40 47.70647 16.23912 35967 ft 445 kts 286°
2026-05-07 16:41 47.72923 16.15403 35971 ft 445 kts 286°
2026-05-07 16:41 47.75202 16.06851 35968 ft 444 kts 287°
2026-05-07 16:42 47.77459 15.98347 35960 ft 444 kts 286°
2026-05-07 16:42 47.79716 15.89807 35973 ft 445 kts 287°
2026-05-07 16:43 47.81971 15.81250 35961 ft 445 kts 287°
2026-05-07 16:43 47.84225 15.72658 35973 ft 447 kts 287°
2026-05-07 16:44 47.86463 15.64100 35964 ft 446 kts 287°
2026-05-07 16:44 47.88696 15.55529 35972 ft 446 kts 287°
2026-05-07 16:45 47.90941 15.46874 35985 ft 447 kts 287°
2026-05-07 16:45 47.93156 15.38307 35985 ft 448 kts 287°
2026-05-07 16:46 47.95381 15.29670 35989 ft 448 kts 286°
2026-05-07 16:46 47.97605 15.21006 35997 ft 447 kts 286°
2026-05-07 16:47 47.99816 15.12356 35998 ft 448 kts 287°
2026-05-07 16:47 48.02036 15.03639 35990 ft 449 kts 287°
2026-05-07 16:48 48.04241 14.94945 35998 ft 449 kts 287°
2026-05-07 16:48 48.06422 14.86313 36001 ft 449 kts 287°
2026-05-07 16:49 48.08615 14.77604 36004 ft 449 kts 287°
2026-05-07 16:49 48.10798 14.68900 36001 ft 449 kts 287°
2026-05-07 16:50 48.12988 14.60132 36002 ft 448 kts 287°
2026-05-07 16:50 48.15160 14.51406 36002 ft 449 kts 287°
2026-05-07 16:51 48.17327 14.42662 35998 ft 450 kts 287°
2026-05-07 16:51 48.19484 14.33927 36004 ft 449 kts 287°
2026-05-07 16:52 48.21641 14.25154 36008 ft 449 kts 287°
2026-05-07 16:52 48.23796 14.16359 36018 ft 449 kts 287°
2026-05-07 16:53 48.25936 14.07590 36015 ft 449 kts 287°
2026-05-07 16:53 48.28063 13.98837 36017 ft 449 kts 287°
2026-05-07 16:54 48.30184 13.90076 36015 ft 448 kts 287°
2026-05-07 16:54 48.32300 13.81299 36014 ft 448 kts 287°
2026-05-07 16:55 48.34401 13.72551 36014 ft 449 kts 287°
2026-05-07 16:55 48.36509 13.63736 36013 ft 449 kts 287°
2026-05-07 16:56 48.38607 13.54931 36011 ft 449 kts 287°
2026-05-07 16:56 48.41737 13.41728 36012 ft 449 kts 287°
2026-05-07 16:57 48.43812 13.32931 36013 ft 449 kts 287°
2026-05-07 16:57 48.46102 13.24203 36016 ft 450 kts 289°
2026-05-07 16:58 48.48428 13.15461 36017 ft 449 kts 289°
2026-05-07 16:58 48.50718 13.06784 36016 ft 449 kts 289°
2026-05-07 16:59 48.53021 12.98007 36019 ft 449 kts 289°
2026-05-07 16:59 48.55302 12.89270 36017 ft 449 kts 289°
2026-05-07 17:00 48.57562 12.80574 36020 ft 449 kts 289°
2026-05-07 17:00 48.59835 12.71792 36022 ft 449 kts 289°
2026-05-07 17:01 48.62086 12.63060 36016 ft 449 kts 289°